Time,TemperatureF,DewpointF,PressureIn,WindDirection,WindDirectionDegrees,WindSpeedMPH,WindSpeedGustMPH,Humidity,HourlyPrecipIn,Conditions,Clouds,dailyrainin,SoftwareType,DateUTC
2013-02-15 00:00:00,33.3,16.1,28.79,NNW,338,13.8,13.8,49,0.00,RA,,0.00,WeatherDisplay:10.37,2013-02-15 05:00:00,
2013-02-15 00:05:00,33.1,16.0,28.79,NW,315,15.0,15.0,49,0.00,RA,,0.00,WeatherDisplay:10.37,2013-02-15 05:05:00,
2013-02-15 00:10:00,33.1,16.0,28.79,NW,315,11.5,11.5,49,0.00,CLR,,0.00,WeatherDisplay:10.37,2013-02-15 05:10:00,
2013-02-15 00:11:00,33.1,16.0,28.79,WNW,292,8.1,8.1,49,0.00,CLR,,0.00,WeatherDisplay:10.37,2013-02-15 05:11:00,
2013-02-15 00:15:00,32.9,15.3,28.79,NNW,338,18.4,18.4,48,0.00,CLR,,0.00,WeatherDisplay:10.37,2013-02-15 05:15:00,
2013-02-15 00:16:00,32.9,15.3,28.79,NNE,22,15.0,15.0,48,0.00,CLR,,0.00,WeatherDisplay:10.37,2013-02-15 05:16:00,
2013-02-15 00:20:00,32.7,15.2,28.79,WNW,292,12.7,12.7,48,0.00,CLR,,0.00,WeatherDisplay:10.37,2013-02-15 05:20:00,
2013-02-15 00:21:00,32.7,15.2,28.79,NNW,338,9.2,9.2,48,0.00,CLR,,0.00,WeatherDisplay:10.37,2013-02-15 05:21:00,
2013-02-15 00:25:00,32.5,15.0,28.79,WNW,292,10.0,10.0,48,0.00,CLR,,0.00,WeatherDisplay:10.37,2013-02-15 05:25:00,
2013-02-15 00:26:00,32.5,15.0,28.79,WNW,292,10.0,10.0,48,0.00,CLR,,0.00,WeatherDisplay:10.37,2013-02-15 05:26:00,
2013-02-15 00:30:00,32.5,15.5,28.79,NNW,338,10.0,10.0,49,0.00,CLR,,0.00,WeatherDisplay:10.37,2013-02-15 05:30:00,
2013-02-15 00:31:00,32.5,15.5,28.79,NNW,338,10.0,10.0,49,0.00,CLR,,0.00,WeatherDisplay:10.37,2013-02-15 05:31:00,
2013-02-15 00:36:00,32.4,15.3,28.79,North,0,15.4,15.4,49,0.00,CLR,,0.00,WeatherDisplay:10.37,2013-02-15 05:36:00,
2013-02-15 00:41:00,32.0,14.0,28.79,NNE,22,12.7,12.7,47,0.00,CLR,,0.00,WeatherDisplay:10.37,2013-02-15 05:41:00,
2013-02-15 00:46:00,31.8,13.4,28.79,NNW,338,12.8,12.8,46,0.00,CLR,,0.00,WeatherDisplay:10.37,2013-02-15 05:46:00,
2013-02-15 00:51:00,31.6,13.2,28.79,NW,315,10.4,10.4,46,0.00,CLR,,0.00,WeatherDisplay:10.37,2013-02-15 05:51:00,
2013-02-15 00:52:00,31.6,13.2,28.79,NNW,338,21.9,21.9,46,0.00,CLR,,0.00,WeatherDisplay:10.37,2013-02-15 05:52:00,
2013-02-15 00:56:00,31.5,12.5,28.79,NW,315,12.7,12.7,45,0.00,CLR,,0.00,WeatherDisplay:10.37,2013-02-15 05:56:00,
2013-02-15 00:57:00,31.5,12.5,28.79,NNW,338,13.8,13.8,45,0.00,CLR,,0.00,WeatherDisplay:10.37,2013-02-15 05:57:00,
2013-02-15 01:01:00,31.3,12.9,28.82,NW,315,13.8,13.8,46,0.00,CLR,,0.00,WeatherDisplay:10.37,2013-02-15 06:01:00,
2013-02-15 01:02:00,31.3,12.9,28.82,NNW,338,10.0,10.0,46,0.00,CLR,,0.00,WeatherDisplay:10.37,2013-02-15 06:02:00,
2013-02-15 01:06:00,31.1,12.7,28.82,NNW,338,8.1,8.1,46,0.00,CLR,,0.00,WeatherDisplay:10.37,2013-02-15 06:06:00,
2013-02-15 01:07:00,31.1,12.7,28.82,NNW,338,10.2,10.2,46,0.00,CLR,,0.00,WeatherDisplay:10.37,2013-02-15 06:07:00,
2013-02-15 01:11:00,30.9,13.0,28.82,North,0,8.1,8.1,47,0.00,CLR,,0.00,WeatherDisplay:10.37,2013-02-15 06:11:00,
2013-02-15 01:12:00,30.9,13.0,28.82,North,0,5.8,5.8,47,0.00,CLR,,0.00,WeatherDisplay:10.37,2013-02-15 06:12:00,
2013-02-15 01:16:00,30.6,12.7,28.82,WNW,292,6.2,6.2,47,0.00,CLR,,0.00,WeatherDisplay:10.37,2013-02-15 06:16:00,
2013-02-15 01:17:00,30.6,12.7,28.82,NNW,338,10.7,10.7,47,0.00,CLR,,0.00,WeatherDisplay:10.37,2013-02-15 06:17:00,
2013-02-15 01:21:00,30.2,11.9,28.82,NW,315,10.4,10.4,46,0.00,CLR,,0.00,WeatherDisplay:10.37,2013-02-15 06:21:00,
2013-02-15 01:22:00,30.2,11.9,28.82,NNE,22,9.2,9.2,46,0.00,CLR,,0.00,WeatherDisplay:10.37,2013-02-15 06:22:00,
2013-02-15 01:27:00,29.8,11.1,28.82,NNE,22,17.3,17.3,45,0.00,CLR,,0.00,WeatherDisplay:10.37,2013-02-15 06:27:00,
2013-02-15 01:32:00,29.5,10.7,28.82,NNE,22,10.4,10.4,45,0.00,CLR,,0.00,WeatherDisplay:10.37,2013-02-15 06:32:00,
2013-02-15 01:37:00,29.1,10.4,28.82,North,0,9.0,9.0,45,0.00,CLR,,0.00,WeatherDisplay:10.37,2013-02-15 06:37:00,
2013-02-15 01:38:00,29.1,10.4,28.82,NNE,22,9.2,9.2,45,0.00,CLR,,0.00,WeatherDisplay:10.37,2013-02-15 06:38:00,
2013-02-15 01:43:00,28.9,9.7,28.82,NNW,338,9.7,9.7,44,0.00,CLR,,0.00,WeatherDisplay:10.37,2013-02-15 06:43:00,
2013-02-15 01:48:00,28.9,9.7,28.82,NNW,338,13.8,13.8,44,0.00,CLR,,0.00,WeatherDisplay:10.37,2013-02-15 06:48:00,
2013-02-15 01:53:00,28.8,9.6,28.82,NW,315,8.1,8.1,44,0.00,CLR,,0.00,WeatherDisplay:10.37,2013-02-15 06:53:00,
2013-02-15 01:54:00,28.8,9.6,28.82,NNW,338,14.5,14.5,44,0.00,CLR,,0.00,WeatherDisplay:10.37,2013-02-15 06:54:00,
2013-02-15 01:58:00,28.8,9.6,28.82,WNW,292,8.1,8.1,44,0.00,CLR,,0.00,WeatherDisplay:10.37,2013-02-15 06:58:00,
2013-02-15 01:59:00,28.8,9.6,28.82,WNW,292,8.1,8.1,44,0.00,CLR,,0.00,WeatherDisplay:10.37,2013-02-15 06:59:00,
2013-02-15 02:03:00,28.8,9.6,28.85,NNW,338,10.4,10.4,44,0.00,CLR,,0.00,WeatherDisplay:10.37,2013-02-15 07:03:00,
2013-02-15 02:04:00,28.8,9.6,28.85,NNE,22,13.8,13.8,44,0.00,CLR,,0.00,WeatherDisplay:10.37,2013-02-15 07:04:00,
2013-02-15 02:08:00,28.8,9.6,28.85,North,0,13.8,13.8,44,0.00,CLR,,0.00,WeatherDisplay:10.37,2013-02-15 07:08:00,
2013-02-15 02:09:00,28.8,9.6,28.85,North,0,13.8,13.8,44,0.00,CLR,,0.00,WeatherDisplay:10.37,2013-02-15 07:09:00,
2013-02-15 02:14:00,28.8,10.1,28.85,North,0,10.2,10.2,45,0.00,CLR,,0.00,WeatherDisplay:10.37,2013-02-15 07:14:00,
2013-02-15 02:19:00,28.8,10.1,28.85,NNW,338,16.1,16.1,45,0.00,CLR,,0.00,WeatherDisplay:10.37,2013-02-15 07:19:00,
2013-02-15 02:20:00,28.8,10.1,28.85,NNW,338,9.2,9.2,45,0.00,CLR,,0.00,WeatherDisplay:10.37,2013-02-15 07:20:00,
2013-02-15 02:24:00,28.8,10.1,28.85,North,0,12.7,12.7,45,0.00,CLR,,0.00,WeatherDisplay:10.37,2013-02-15 07:24:00,
2013-02-15 02:25:00,28.8,10.1,28.85,NNW,338,9.2,9.2,45,0.00,CLR,,0.00,WeatherDisplay:10.37,2013-02-15 07:25:00,
2013-02-15 02:29:00,28.8,10.1,28.85,North,0,10.4,10.4,45,0.00,CLR,,0.00,WeatherDisplay:10.37,2013-02-15 07:29:00,
2013-02-15 02:30:00,28.8,10.1,28.85,NNW,338,10.4,10.4,45,0.00,CLR,,0.00,WeatherDisplay:10.37,2013-02-15 07:30:00,
2013-02-15 02:34:00,28.8,10.1,28.85,NNE,22,10.5,10.5,45,0.00,CLR,,0.00,WeatherDisplay:10.37,2013-02-15 07:34:00,
2013-02-15 02:35:00,28.8,10.1,28.85,NNE,22,11.5,11.5,45,0.00,CLR,,0.00,WeatherDisplay:10.37,2013-02-15 07:35:00,
2013-02-15 02:39:00,28.8,10.1,28.85,NNW,338,12.8,12.8,45,0.00,CLR,,0.00,WeatherDisplay:10.37,2013-02-15 07:39:00,
2013-02-15 02:40:00,28.8,10.1,28.85,NNE,22,13.0,13.0,45,0.00,CLR,,0.00,WeatherDisplay:10.37,2013-02-15 07:40:00,
2013-02-15 02:44:00,28.8,10.1,28.85,NNW,338,9.2,9.2,45,0.00,CLR,,0.00,WeatherDisplay:10.37,2013-02-15 07:44:00,
2013-02-15 02:45:00,28.8,10.1,28.85,North,350,6.0,14.0,45,0.00,CLR,,0.00,WeatherDisplay:10.37,2013-02-15 07:45:00,
2013-02-15 02:49:00,28.8,10.6,28.85,NNE,22,12.7,12.7,46,0.00,CLR,,0.00,WeatherDisplay:10.37,2013-02-15 07:49:00,
2013-02-15 02:50:00,28.8,10.6,28.85,NNW,338,12.7,12.7,46,0.00,CLR,,0.00,WeatherDisplay:10.37,2013-02-15 07:50:00,
2013-02-15 02:51:00,28.8,10.6,28.85,NNW,338,12.7,12.7,46,0.00,CLR,,0.00,WeatherDisplay:10.37,2013-02-15 07:51:00,
2013-02-15 02:54:00,28.6,10.4,28.85,NW,315,5.8,5.8,46,0.00,CLR,,0.00,WeatherDisplay:10.37,2013-02-15 07:54:00,
2013-02-15 02:55:00,28.6,10.4,28.85,NNW,338,12.5,12.5,46,0.00,CLR,,0.00,WeatherDisplay:10.37,2013-02-15 07:55:00,
2013-02-15 02:56:00,28.6,10.4,28.85,North,0,12.7,12.7,46,0.00,CLR,,0.00,WeatherDisplay:10.37,2013-02-15 07:56:00,
2013-02-15 02:59:00,28.4,10.2,28.85,NNE,22,8.1,8.1,46,0.00,CLR,,0.00,WeatherDisplay:10.37,2013-02-15 07:59:00,
2013-02-15 03:00:00,28.4,10.2,28.85,NW,315,5.8,5.8,46,0.00,CLR,,0.00,WeatherDisplay:10.37,2013-02-15 08:00:00,
2013-02-15 03:01:00,28.4,10.2,28.85,NNW,338,4.6,4.6,46,0.00,CLR,,0.00,WeatherDisplay:10.37,2013-02-15 08:01:00,
2013-02-15 03:05:00,28.4,10.2,28.85,NNW,330,5.0,6.0,46,0.00,CLR,,0.00,WeatherDisplay:10.37,2013-02-15 08:05:00,
2013-02-15 03:06:00,28.4,10.2,28.85,NNW,338,10.4,10.4,46,0.00,CLR,,0.00,WeatherDisplay:10.37,2013-02-15 08:06:00,
2013-02-15 03:10:00,28.3,10.1,28.85,NNW,329,7.0,12.0,46,0.00,CLR,,0.00,WeatherDisplay:10.37,2013-02-15 08:10:00,
2013-02-15 03:11:00,28.2,10.1,28.85,NW,315,6.9,6.9,46,0.00,CLR,,0.00,WeatherDisplay:10.37,2013-02-15 08:11:00,
2013-02-15 03:15:00,28.2,10.1,28.85,NW,315,4.6,4.6,46,0.00,CLR,,0.00,WeatherDisplay:10.37,2013-02-15 08:15:00,
2013-02-15 03:16:00,28.2,10.1,28.85,NW,315,7.6,7.6,46,0.00,CLR,,0.00,WeatherDisplay:10.37,2013-02-15 08:16:00,
2013-02-15 03:20:00,28.2,10.1,28.85,NNW,338,5.8,5.8,46,0.00,CLR,,0.00,WeatherDisplay:10.37,2013-02-15 08:20:00,
2013-02-15 03:21:00,28.2,10.1,28.85,NNW,338,5.8,5.8,46,0.00,CLR,,0.00,WeatherDisplay:10.37,2013-02-15 08:21:00,
2013-02-15 03:22:00,28.2,10.1,28.85,NW,315,6.0,6.0,46,0.00,CLR,,0.00,WeatherDisplay:10.37,2013-02-15 08:22:00,
2013-02-15 03:25:00,28.2,10.1,28.85,NNW,338,8.1,8.1,46,0.00,CLR,,0.00,WeatherDisplay:10.37,2013-02-15 08:25:00,
2013-02-15 03:27:00,28.2,10.1,28.85,North,0,10.0,10.0,46,0.00,CLR,,0.00,WeatherDisplay:10.37,2013-02-15 08:27:00,
2013-02-15 03:30:00,28.2,10.1,28.85,NNW,338,12.1,12.1,46,0.00,CLR,,0.00,WeatherDisplay:10.37,2013-02-15 08:30:00,
2013-02-15 03:32:00,28.2,10.1,28.85,NNE,22,11.5,11.5,46,0.00,CLR,,0.00,WeatherDisplay:10.37,2013-02-15 08:32:00,
2013-02-15 03:35:00,28.0,9.4,28.85,NW,315,10.4,10.4,45,0.00,CLR,,0.00,WeatherDisplay:10.37,2013-02-15 08:35:00,
2013-02-15 03:37:00,27.9,9.2,28.85,NNE,22,10.4,10.4,45,0.00,CLR,,0.00,WeatherDisplay:10.37,2013-02-15 08:37:00,
2013-02-15 03:42:00,27.9,9.2,28.85,NW,315,8.1,8.1,45,0.00,CLR,,0.00,WeatherDisplay:10.37,2013-02-15 08:42:00,
2013-02-15 03:47:00,27.9,9.2,28.85,NNW,338,8.1,8.1,45,0.00,CLR,,0.00,WeatherDisplay:10.37,2013-02-15 08:47:00,
2013-02-15 03:48:00,27.9,9.2,28.85,NNE,22,6.9,6.9,45,0.00,CLR,,0.00,WeatherDisplay:10.37,2013-02-15 08:48:00,
2013-02-15 03:52:00,27.7,9.1,28.85,North,0,10.4,10.4,45,0.00,CLR,,0.00,WeatherDisplay:10.37,2013-02-15 08:52:00,
2013-02-15 03:53:00,27.7,9.1,28.85,North,0,10.4,10.4,45,0.00,CLR,,0.00,WeatherDisplay:10.37,2013-02-15 08:53:00,
2013-02-15 03:57:00,27.5,8.9,28.85,North,0,8.1,8.1,45,0.00,CLR,,0.00,WeatherDisplay:10.37,2013-02-15 08:57:00,
2013-02-15 03:58:00,27.5,8.9,28.85,North,0,6.9,6.9,45,0.00,CLR,,0.00,WeatherDisplay:10.37,2013-02-15 08:58:00,
2013-02-15 04:03:00,27.5,8.9,28.85,NNW,338,10.4,10.4,45,0.00,CLR,,0.00,WeatherDisplay:10.37,2013-02-15 09:03:00,
2013-02-15 04:08:00,27.3,8.7,28.85,WNW,292,5.8,5.8,45,0.00,CLR,,0.00,WeatherDisplay:10.37,2013-02-15 09:08:00,
2013-02-15 04:09:00,27.3,8.7,28.85,North,0,11.5,11.5,45,0.00,CLR,,0.00,WeatherDisplay:10.37,2013-02-15 09:09:00,
2013-02-15 04:13:00,27.3,8.7,28.85,NNW,338,13.8,13.8,45,0.00,CLR,,0.00,WeatherDisplay:10.37,2013-02-15 09:13:00,
2013-02-15 04:14:00,27.3,8.7,28.85,NNW,338,11.5,11.5,45,0.00,CLR,,0.00,WeatherDisplay:10.37,2013-02-15 09:14:00,
2013-02-15 04:18:00,27.1,8.6,28.88,NW,315,3.5,0.0,45,0.00,CLR,,0.00,WeatherDisplay:10.37,2013-02-15 09:18:00,
2013-02-15 04:19:00,27.1,8.6,28.88,WSW,248,1.1,0.0,45,0.00,CLR,,0.00,WeatherDisplay:10.37,2013-02-15 09:19:00,
2013-02-15 04:23:00,27.1,8.6,28.88,North,0,5.8,5.8,45,0.00,CLR,,0.00,WeatherDisplay:10.37,2013-02-15 09:23:00,
2013-02-15 04:24:00,27.1,8.6,28.88,NNW,338,5.9,5.9,45,0.00,CLR,,0.00,WeatherDisplay:10.37,2013-02-15 09:24:00,
2013-02-15 04:28:00,27.0,8.4,28.88,WNW,292,7.1,7.1,45,0.00,CLR,,0.00,WeatherDisplay:10.37,2013-02-15 09:28:00,
2013-02-15 04:29:00,27.0,8.4,28.88,NW,315,6.9,6.9,45,0.00,CLR,,0.00,WeatherDisplay:10.37,2013-02-15 09:29:00,
2013-02-15 04:30:00,27.0,8.4,28.88,NW,326,5.0,7.0,45,0.00,CLR,,0.00,WeatherDisplay:10.37,2013-02-15 09:30:00,
2013-02-15 04:33:00,27.0,8.4,28.88,WSW,248,5.8,6.2,45,0.00,CLR,,0.00,WeatherDisplay:10.37,2013-02-15 09:33:00,
2013-02-15 04:34:00,27.0,8.4,28.88,WSW,248,3.5,6.2,45,0.00,CLR,,0.00,WeatherDisplay:10.37,2013-02-15 09:34:00,
2013-02-15 04:35:00,27.0,8.4,28.88,NNW,338,6.9,6.9,45,0.00,CLR,,0.00,WeatherDisplay:10.37,2013-02-15 09:35:00,
2013-02-15 04:39:00,26.8,8.2,28.88,NNW,338,10.4,10.4,45,0.00,CLR,,0.00,WeatherDisplay:10.37,2013-02-15 09:39:00,
2013-02-15 04:40:00,26.6,8.1,28.88,North,0,18.4,18.4,45,0.00,CLR,,0.00,WeatherDisplay:10.37,2013-02-15 09:40:00,
2013-02-15 04:44:00,26.4,7.4,28.88,NNW,338,10.4,10.4,44,0.00,CLR,,0.00,WeatherDisplay:10.37,2013-02-15 09:44:00,
2013-02-15 04:45:00,26.2,7.3,28.88,NNE,22,9.7,9.7,44,0.00,CLR,,0.00,WeatherDisplay:10.37,2013-02-15 09:45:00,
2013-02-15 04:49:00,26.1,7.1,28.88,WNW,292,15.0,15.0,44,0.00,CLR,,0.00,WeatherDisplay:10.37,2013-02-15 09:49:00,
2013-02-15 04:51:00,25.9,6.9,28.88,WNW,292,9.2,9.2,44,0.00,CLR,,0.00,WeatherDisplay:10.37,2013-02-15 09:51:00,
2013-02-15 04:54:00,25.7,6.3,28.88,NNE,22,17.3,17.3,43,0.00,CLR,,0.00,WeatherDisplay:10.37,2013-02-15 09:54:00,
2013-02-15 04:55:00,25.7,6.3,28.88,NNW,338,17.3,17.3,43,0.00,CLR,,0.00,WeatherDisplay:10.37,2013-02-15 09:55:00,
2013-02-15 04:56:00,25.5,6.1,28.88,NNW,338,12.7,12.7,43,0.00,CLR,,0.00,WeatherDisplay:10.37,2013-02-15 09:56:00,
2013-02-15 04:59:00,25.3,5.9,28.88,WNW,292,10.4,11.2,43,0.00,CLR,,0.00,WeatherDisplay:10.37,2013-02-15 09:59:00,
2013-02-15 05:00:00,25.3,5.9,28.88,NNW,338,11.5,11.5,43,0.00,CLR,,0.00,WeatherDisplay:10.37,2013-02-15 10:00:00,
2013-02-15 05:01:00,25.3,5.9,28.88,NNW,338,9.2,9.2,43,0.00,CLR,,0.00,WeatherDisplay:10.37,2013-02-15 10:01:00,
2013-02-15 05:04:00,25.2,5.8,28.88,NNE,22,16.1,16.1,43,0.00,CLR,,0.00,WeatherDisplay:10.37,2013-02-15 10:04:00,
2013-02-15 05:05:00,25.2,5.8,28.88,NNW,338,19.6,19.6,43,0.00,CLR,,0.00,WeatherDisplay:10.37,2013-02-15 10:05:00,
2013-02-15 05:06:00,25.0,5.6,28.88,NNW,338,10.4,10.4,43,0.00,CLR,,0.00,WeatherDisplay:10.37,2013-02-15 10:06:00,
2013-02-15 05:09:00,25.0,5.6,28.88,NNW,338,7.8,7.8,43,0.00,CLR,,0.00,WeatherDisplay:10.37,2013-02-15 10:09:00,
2013-02-15 05:10:00,24.8,5.4,28.88,NNE,22,10.4,10.4,43,0.00,CLR,,0.00,WeatherDisplay:10.37,2013-02-15 10:10:00,
2013-02-15 05:11:00,24.8,5.4,28.88,NNW,338,8.1,8.7,43,0.00,CLR,,0.00,WeatherDisplay:10.37,2013-02-15 10:11:00,
2013-02-15 05:15:00,24.8,5.9,28.89,NNW,333,8.0,13.0,44,0.00,CLR,,0.00,WeatherDisplay:10.37,2013-02-15 10:15:00,
2013-02-15 05:16:00,24.8,5.9,28.91,NNE,22,10.4,10.4,44,0.00,CLR,,0.00,WeatherDisplay:10.37,2013-02-15 10:16:00,
2013-02-15 05:20:00,24.6,5.8,28.91,SSW,202,9.2,9.2,44,0.00,CLR,,0.00,WeatherDisplay:10.37,2013-02-15 10:20:00,
2013-02-15 05:21:00,24.6,5.8,28.91,NNW,338,9.7,9.7,44,0.00,CLR,,0.00,WeatherDisplay:10.37,2013-02-15 10:21:00,
2013-02-15 05:25:00,24.6,5.3,28.91,NNW,338,8.1,8.1,43,0.00,CLR,,0.00,WeatherDisplay:10.37,2013-02-15 10:25:00,
2013-02-15 05:26:00,24.4,5.1,28.91,NNW,338,9.2,9.2,43,0.00,CLR,,0.00,WeatherDisplay:10.37,2013-02-15 10:26:00,
2013-02-15 05:30:00,24.4,5.1,28.91,NNE,22,10.4,10.4,43,0.00,CLR,,0.00,WeatherDisplay:10.37,2013-02-15 10:30:00,
2013-02-15 05:31:00,24.4,5.1,28.91,NNW,338,10.4,10.4,43,0.00,CLR,,0.00,WeatherDisplay:10.37,2013-02-15 10:31:00,
2013-02-15 05:35:00,24.4,5.1,28.91,NNW,338,12.7,12.7,43,0.00,CLR,,0.00,WeatherDisplay:10.37,2013-02-15 10:35:00,
2013-02-15 05:36:00,24.4,5.1,28.91,North,0,15.2,15.2,43,0.00,CLR,,0.00,WeatherDisplay:10.37,2013-02-15 10:36:00,
2013-02-15 05:37:00,24.4,5.1,28.91,WNW,292,17.3,17.3,43,0.00,CLR,,0.00,WeatherDisplay:10.37,2013-02-15 10:37:00,
2013-02-15 05:40:00,24.4,5.1,28.91,North,0,12.7,12.7,43,0.00,CLR,,0.00,WeatherDisplay:10.37,2013-02-15 10:40:00,
2013-02-15 05:41:00,24.4,5.1,28.91,NW,315,12.7,12.7,43,0.00,CLR,,0.00,WeatherDisplay:10.37,2013-02-15 10:41:00,
2013-02-15 05:42:00,24.4,5.1,28.91,NNE,22,8.5,8.5,43,0.00,CLR,,0.00,WeatherDisplay:10.37,2013-02-15 10:42:00,
2013-02-15 05:45:00,24.3,4.9,28.91,WNW,292,11.5,11.5,43,0.00,CLR,,0.00,WeatherDisplay:10.37,2013-02-15 10:45:00,
2013-02-15 05:46:00,24.3,4.9,28.91,NW,315,11.5,11.5,43,0.00,CLR,,0.00,WeatherDisplay:10.37,2013-02-15 10:46:00,
2013-02-15 05:47:00,24.3,4.9,28.91,NNW,338,10.4,10.4,43,0.00,CLR,,0.00,WeatherDisplay:10.37,2013-02-15 10:47:00,
2013-02-15 05:50:00,24.3,4.9,28.91,NNW,338,12.7,12.7,43,0.00,CLR,,0.00,WeatherDisplay:10.37,2013-02-15 10:50:00,
2013-02-15 05:52:00,24.3,4.9,28.91,NW,315,8.1,8.1,43,0.00,CLR,,0.00,WeatherDisplay:10.37,2013-02-15 10:52:00,
2013-02-15 05:55:00,24.3,4.9,28.91,NNW,338,8.1,8.1,43,0.00,CLR,,0.00,WeatherDisplay:10.37,2013-02-15 10:55:00,
2013-02-15 05:57:00,24.3,4.9,28.91,NNW,338,6.2,6.2,43,0.00,CLR,,0.00,WeatherDisplay:10.37,2013-02-15 10:57:00,
2013-02-15 06:00:00,24.1,4.8,28.91,NW,315,11.5,11.5,43,0.00,CLR,,0.00,WeatherDisplay:10.37,2013-02-15 11:00:00,
2013-02-15 06:02:00,24.1,4.8,28.91,NNW,338,9.7,9.7,43,0.00,CLR,,0.00,WeatherDisplay:10.37,2013-02-15 11:02:00,
2013-02-15 06:05:00,23.9,4.6,28.91,NW,315,13.2,13.2,43,0.00,CLR,,0.00,WeatherDisplay:10.37,2013-02-15 11:05:00,
2013-02-15 06:07:00,23.9,4.6,28.91,NNE,22,13.8,13.8,43,0.00,CLR,,0.00,WeatherDisplay:10.37,2013-02-15 11:07:00,
2013-02-15 06:10:00,23.9,4.1,28.91,WNW,292,9.2,9.2,42,0.00,CLR,,0.00,WeatherDisplay:10.37,2013-02-15 11:10:00,
2013-02-15 06:12:00,23.7,3.9,28.91,WNW,292,9.2,9.2,42,0.00,CLR,,0.00,WeatherDisplay:10.37,2013-02-15 11:12:00,
2013-02-15 06:13:00,23.7,3.9,28.91,NNW,338,11.8,11.8,42,0.00,CLR,,0.00,WeatherDisplay:10.37,2013-02-15 11:13:00,
2013-02-15 06:15:00,23.7,3.9,28.91,NNW,338,9.2,9.2,42,0.00,CLR,,0.00,WeatherDisplay:10.37,2013-02-15 11:15:00,
2013-02-15 06:17:00,23.7,3.9,28.91,NNW,338,9.4,9.4,42,0.00,CLR,,0.00,WeatherDisplay:10.37,2013-02-15 11:17:00,
2013-02-15 06:18:00,23.7,3.9,28.91,NNW,338,12.7,12.7,42,0.00,CLR,,0.00,WeatherDisplay:10.37,2013-02-15 11:18:00,
2013-02-15 06:21:00,23.5,3.8,28.91,NNW,338,10.7,10.7,42,0.00,CLR,,0.00,WeatherDisplay:10.37,2013-02-15 11:21:00,
2013-02-15 06:22:00,23.5,3.8,28.91,North,0,10.4,10.4,42,0.00,CLR,,0.00,WeatherDisplay:10.37,2013-02-15 11:22:00,
2013-02-15 06:23:00,23.5,3.8,28.91,NW,315,8.1,8.1,42,0.00,CLR,,0.00,WeatherDisplay:10.37,2013-02-15 11:23:00,
2013-02-15 06:26:00,23.5,4.3,28.91,NNW,338,5.8,5.8,43,0.00,CLR,,0.00,WeatherDisplay:10.37,2013-02-15 11:26:00,
2013-02-15 06:28:00,23.5,4.3,28.91,NNE,22,5.8,5.8,43,0.00,CLR,,0.00,WeatherDisplay:10.37,2013-02-15 11:28:00,
2013-02-15 06:29:00,23.5,4.3,28.91,North,0,8.1,8.1,43,0.00,CLR,,0.00,WeatherDisplay:10.37,2013-02-15 11:29:00,
2013-02-15 06:31:00,23.5,4.3,28.94,NNW,338,10.4,10.4,43,0.00,CLR,,0.00,WeatherDisplay:10.37,2013-02-15 11:31:00,
2013-02-15 06:33:00,23.5,3.8,28.94,NNW,338,9.2,9.2,42,0.00,CLR,,0.00,WeatherDisplay:10.37,2013-02-15 11:33:00,
2013-02-15 06:34:00,23.5,3.8,28.94,West,270,10.4,10.4,42,0.00,CLR,,0.00,WeatherDisplay:10.37,2013-02-15 11:34:00,
2013-02-15 06:37:00,23.5,3.8,28.94,NNW,338,10.5,10.5,42,0.00,CLR,,0.00,WeatherDisplay:10.37,2013-02-15 11:37:00,
2013-02-15 06:38:00,23.4,3.6,28.94,NNW,338,10.4,10.4,42,0.00,CLR,,0.00,WeatherDisplay:10.37,2013-02-15 11:38:00,
2013-02-15 06:39:00,23.4,3.6,28.94,WNW,292,9.2,9.2,42,0.00,CLR,,0.00,WeatherDisplay:10.37,2013-02-15 11:39:00,
2013-02-15 06:42:00,23.4,3.6,28.94,NNW,338,9.2,9.2,42,0.00,CLR,,0.00,WeatherDisplay:10.37,2013-02-15 11:42:00,
2013-02-15 06:43:00,23.4,3.6,28.94,WNW,292,9.2,9.2,42,0.00,CLR,,0.00,WeatherDisplay:10.37,2013-02-15 11:43:00,
2013-02-15 06:44:00,23.4,3.6,28.94,NNW,338,5.4,5.4,42,0.00,CLR,,0.00,WeatherDisplay:10.37,2013-02-15 11:44:00,
2013-02-15 06:47:00,23.4,4.1,28.94,NNW,338,8.1,8.1,43,0.00,CLR,,0.00,WeatherDisplay:10.37,2013-02-15 11:47:00,
2013-02-15 06:49:00,23.4,4.1,28.94,NNW,338,10.4,10.4,43,0.00,CLR,,0.00,WeatherDisplay:10.37,2013-02-15 11:49:00,
2013-02-15 06:52:00,23.4,4.1,28.94,North,0,7.6,7.6,43,0.00,CLR,,0.00,WeatherDisplay:10.37,2013-02-15 11:52:00,
2013-02-15 06:54:00,23.4,4.1,28.94,NNW,338,3.5,0.0,43,0.00,CLR,,0.00,WeatherDisplay:10.37,2013-02-15 11:54:00,
2013-02-15 06:57:00,23.2,4.0,28.94,NW,315,5.8,5.8,43,0.00,CLR,,0.00,WeatherDisplay:10.37,2013-02-15 11:57:00,
2013-02-15 06:59:00,23.2,4.0,28.94,NNW,338,8.1,8.1,43,0.00,CLR,,0.00,WeatherDisplay:10.37,2013-02-15 11:59:00,
2013-02-15 07:00:00,23.2,4.0,28.94,West,270,6.9,6.9,43,0.00,CLR,,0.00,WeatherDisplay:10.37,2013-02-15 12:00:00,
2013-02-15 07:02:00,23.2,4.0,28.94,NNW,338,8.1,8.1,43,0.00,CLR,,0.00,WeatherDisplay:10.37,2013-02-15 12:02:00,
2013-02-15 07:04:00,23.2,4.0,28.94,West,270,5.8,5.8,43,0.00,CLR,,0.00,WeatherDisplay:10.37,2013-02-15 12:04:00,
2013-02-15 07:05:00,23.2,4.0,28.94,NNW,338,5.4,5.4,43,0.00,CLR,,0.00,WeatherDisplay:10.37,2013-02-15 12:05:00,
2013-02-15 07:07:00,23.2,4.0,28.94,NNE,22,6.2,6.2,43,0.00,CLR,,0.00,WeatherDisplay:10.37,2013-02-15 12:07:00,
2013-02-15 07:09:00,23.0,3.8,28.94,NNW,338,6.9,6.9,43,0.00,CLR,,0.00,WeatherDisplay:10.37,2013-02-15 12:09:00,
2013-02-15 07:10:00,23.0,3.8,28.94,NNW,338,4.6,4.6,43,0.00,CLR,,0.00,WeatherDisplay:10.37,2013-02-15 12:10:00,
2013-02-15 07:12:00,23.0,4.3,28.94,WNW,292,9.2,9.2,44,0.00,CLR,,0.00,WeatherDisplay:10.37,2013-02-15 12:12:00,
2013-02-15 07:15:00,23.0,4.3,28.94,WNW,292,5.8,5.8,44,0.00,CLR,,0.00,WeatherDisplay:10.37,2013-02-15 12:15:00,
2013-02-15 07:16:00,23.0,4.3,28.94,NNW,338,5.8,5.8,44,0.00,CLR,,0.00,WeatherDisplay:10.37,2013-02-15 12:16:00,
2013-02-15 07:17:00,23.0,4.3,28.94,WNW,292,4.6,4.6,44,0.00,CLR,,0.00,WeatherDisplay:10.37,2013-02-15 12:17:00,
2013-02-15 07:20:00,23.0,4.3,28.94,WNW,292,5.8,5.8,44,0.00,CLR,,0.00,WeatherDisplay:10.37,2013-02-15 12:20:00,
2013-02-15 07:21:00,23.0,4.3,28.94,NNW,338,5.9,5.9,44,0.00,CLR,,0.00,WeatherDisplay:10.37,2013-02-15 12:21:00,
2013-02-15 07:23:00,23.0,4.3,28.94,WNW,292,5.8,5.8,44,0.00,CLR,,0.00,WeatherDisplay:10.37,2013-02-15 12:23:00,
2013-02-15 07:25:00,22.8,4.1,28.94,North,0,3.5,3.5,44,0.00,CLR,,0.00,WeatherDisplay:10.37,2013-02-15 12:25:00,
2013-02-15 07:26:00,22.8,4.1,28.94,WNW,292,8.1,8.1,44,0.00,CLR,,0.00,WeatherDisplay:10.37,2013-02-15 12:26:00,
2013-02-15 07:28:00,22.8,4.1,28.94,NNW,338,6.2,6.2,44,0.00,CLR,,0.00,WeatherDisplay:10.37,2013-02-15 12:28:00,
2013-02-15 07:30:00,22.8,4.1,28.94,NW,315,4.9,4.9,44,0.00,CLR,,0.00,WeatherDisplay:10.37,2013-02-15 12:30:00,
2013-02-15 07:31:00,22.8,4.1,28.94,NW,315,8.1,8.1,44,0.00,CLR,,0.00,WeatherDisplay:10.37,2013-02-15 12:31:00,
2013-02-15 07:33:00,22.8,4.1,28.94,NNW,338,5.8,5.8,44,0.00,CLR,,0.00,WeatherDisplay:10.37,2013-02-15 12:33:00,
2013-02-15 07:35:00,22.8,4.1,28.94,WSW,248,9.2,9.2,44,0.00,CLR,,0.00,WeatherDisplay:10.37,2013-02-15 12:35:00,
2013-02-15 07:36:00,22.8,4.1,28.94,NNW,338,9.2,9.2,44,0.00,CLR,,0.00,WeatherDisplay:10.37,2013-02-15 12:36:00,
2013-02-15 07:38:00,22.8,4.1,28.94,NNE,22,10.4,10.4,44,0.00,CLR,,0.00,WeatherDisplay:10.37,2013-02-15 12:38:00,
2013-02-15 07:40:00,22.8,4.1,28.94,NNW,338,6.9,6.9,44,0.00,CLR,,0.00,WeatherDisplay:10.37,2013-02-15 12:40:00,
2013-02-15 07:41:00,22.8,4.1,28.94,NNW,338,5.8,5.8,44,0.00,CLR,,0.00,WeatherDisplay:10.37,2013-02-15 12:41:00,
2013-02-15 07:42:00,22.8,4.1,28.94,WNW,292,8.1,8.1,44,0.00,CLR,,0.00,WeatherDisplay:10.37,2013-02-15 12:42:00,
2013-02-15 07:43:00,22.8,4.1,28.94,NNW,338,4.6,4.6,44,0.00,CLR,,0.00,WeatherDisplay:10.37,2013-02-15 12:43:00,
2013-02-15 07:45:00,22.8,4.1,28.97,NNE,22,8.1,8.1,44,0.00,CLR,,0.00,WeatherDisplay:10.37,2013-02-15 12:45:00,
2013-02-15 07:46:00,22.8,4.1,28.97,North,0,8.5,8.5,44,0.00,CLR,,0.00,WeatherDisplay:10.37,2013-02-15 12:46:00,
2013-02-15 07:47:00,22.8,4.1,28.97,NNE,22,8.5,8.5,44,0.00,CLR,,0.00,WeatherDisplay:10.37,2013-02-15 12:47:00,
2013-02-15 07:48:00,22.8,4.1,28.97,North,0,10.0,10.0,44,0.00,CLR,,0.00,WeatherDisplay:10.37,2013-02-15 12:48:00,
2013-02-15 07:51:00,22.8,3.6,28.97,WNW,292,13.8,13.8,43,0.00,CLR,,0.00,WeatherDisplay:10.37,2013-02-15 12:51:00,
2013-02-15 07:52:00,22.8,3.6,28.97,NW,315,4.6,4.6,43,0.00,CLR,,0.00,WeatherDisplay:10.37,2013-02-15 12:52:00,
2013-02-15 07:53:00,22.8,3.6,28.97,NNW,338,4.0,4.7,43,0.00,CLR,,0.00,WeatherDisplay:10.37,2013-02-15 12:53:00,
2013-02-15 07:56:00,22.8,3.6,28.97,NNW,338,10.2,10.2,43,0.00,CLR,,0.00,WeatherDisplay:10.37,2013-02-15 12:56:00,
2013-02-15 07:58:00,22.8,3.6,28.97,NNW,338,12.7,12.7,43,0.00,CLR,,0.00,WeatherDisplay:10.37,2013-02-15 12:58:00,
2013-02-15 08:01:00,22.8,3.6,28.97,NNW,338,9.2,9.2,43,0.00,CLR,,0.00,WeatherDisplay:10.37,2013-02-15 13:01:00,
2013-02-15 08:03:00,22.8,3.6,28.97,WSW,248,6.9,6.9,43,0.00,CLR,,0.00,WeatherDisplay:10.37,2013-02-15 13:03:00,
2013-02-15 08:04:00,22.8,3.6,28.97,NNW,338,5.8,5.8,43,0.00,CLR,,0.00,WeatherDisplay:10.37,2013-02-15 13:04:00,
2013-02-15 08:06:00,22.8,3.6,28.97,WNW,292,10.4,10.4,43,0.00,CLR,,0.00,WeatherDisplay:10.37,2013-02-15 13:06:00,
2013-02-15 08:08:00,22.8,3.6,28.97,NNW,338,5.8,5.8,43,0.00,CLR,,0.00,WeatherDisplay:10.37,2013-02-15 13:08:00,
2013-02-15 08:09:00,22.8,3.6,28.97,NNE,22,6.9,6.9,43,0.00,CLR,,0.00,WeatherDisplay:10.37,2013-02-15 13:09:00,
2013-02-15 08:12:00,22.8,3.6,28.97,NNW,338,8.1,8.1,43,0.00,CLR,,0.00,WeatherDisplay:10.37,2013-02-15 13:12:00,
2013-02-15 08:13:00,22.8,3.6,28.97,North,0,4.9,4.9,43,0.00,CLR,,0.00,WeatherDisplay:10.37,2013-02-15 13:13:00,
2013-02-15 08:14:00,22.8,3.6,28.97,NNW,338,6.2,6.2,43,0.00,CLR,,0.00,WeatherDisplay:10.37,2013-02-15 13:14:00,
2013-02-15 08:17:00,22.8,3.6,28.97,NNW,338,8.1,8.1,43,0.00,CLR,,0.00,WeatherDisplay:10.37,2013-02-15 13:17:00,
2013-02-15 08:18:00,22.8,3.6,28.97,NNW,338,7.1,7.1,43,0.00,CLR,,0.00,WeatherDisplay:10.37,2013-02-15 13:18:00,
2013-02-15 08:19:00,23.0,3.8,28.97,NW,315,6.9,6.9,43,0.00,CLR,,0.00,WeatherDisplay:10.37,2013-02-15 13:19:00,
2013-02-15 08:22:00,23.0,3.8,28.97,NNW,338,4.6,4.6,43,0.00,CLR,,0.00,WeatherDisplay:10.37,2013-02-15 13:22:00,
2013-02-15 08:23:00,23.0,3.8,28.97,WNW,292,2.6,2.6,43,0.00,CLR,,0.00,WeatherDisplay:10.37,2013-02-15 13:23:00,
2013-02-15 08:25:00,23.0,3.8,28.97,NNW,338,7.8,7.8,43,0.00,CLR,,0.00,WeatherDisplay:10.37,2013-02-15 13:25:00,
2013-02-15 08:27:00,23.2,4.0,28.97,NNW,338,4.6,4.6,43,0.00,CLR,,0.00,WeatherDisplay:10.37,2013-02-15 13:27:00,
2013-02-15 08:28:00,23.2,4.0,28.97,SSE,158,4.6,4.6,43,0.00,CLR,,0.00,WeatherDisplay:10.37,2013-02-15 13:28:00,
2013-02-15 08:30:00,23.2,4.0,28.97,NNW,327,3.0,10.0,43,0.00,CLR,,0.00,WeatherDisplay:10.37,2013-02-15 13:30:00,
2013-02-15 08:32:00,23.2,4.0,28.97,WNW,292,5.8,5.8,43,0.00,CLR,,0.00,WeatherDisplay:10.37,2013-02-15 13:32:00,
2013-02-15 08:33:00,23.2,4.0,28.97,NW,315,6.9,6.9,43,0.00,CLR,,0.00,WeatherDisplay:10.37,2013-02-15 13:33:00,
2013-02-15 08:34:00,23.0,3.8,28.97,West,270,6.9,6.9,43,0.00,CLR,,0.00,WeatherDisplay:10.37,2013-02-15 13:34:00,
2013-02-15 08:35:00,23.1,3.9,28.97,NW,316,3.0,7.0,43,0.00,CLR,,0.00,WeatherDisplay:10.37,2013-02-15 13:35:00,
2013-02-15 08:37:00,23.2,4.0,28.97,NNW,338,4.6,4.6,43,0.00,CLR,,0.00,WeatherDisplay:10.37,2013-02-15 13:37:00,
2013-02-15 08:38:00,23.4,4.1,28.97,WSW,248,4.3,4.3,43,0.00,CLR,,0.00,WeatherDisplay:10.37,2013-02-15 13:38:00,
2013-02-15 08:39:00,23.4,4.1,28.97,West,270,4.6,4.6,43,0.00,CLR,,0.00,WeatherDisplay:10.37,2013-02-15 13:39:00,
2013-02-15 08:40:00,23.2,4.0,28.97,North,0,4.6,4.6,43,0.00,CLR,,0.00,WeatherDisplay:10.37,2013-02-15 13:40:00,
2013-02-15 08:42:00,23.2,3.4,28.97,WSW,248,8.1,8.1,42,0.00,CLR,,0.00,WeatherDisplay:10.37,2013-02-15 13:42:00,
2013-02-15 08:43:00,23.2,3.4,28.97,NNW,338,10.4,10.4,42,0.00,CLR,,0.00,WeatherDisplay:10.37,2013-02-15 13:43:00,
2013-02-15 08:44:00,23.2,3.4,28.97,NW,315,5.8,5.8,42,0.00,CLR,,0.00,WeatherDisplay:10.37,2013-02-15 13:44:00,
2013-02-15 08:45:00,23.2,3.4,29.00,NNW,338,8.5,8.5,42,0.00,CLR,,0.00,WeatherDisplay:10.37,2013-02-15 13:45:00,
2013-02-15 08:47:00,23.2,3.4,29.00,NNW,338,8.1,8.1,42,0.00,CLR,,0.00,WeatherDisplay:10.37,2013-02-15 13:47:00,
2013-02-15 08:48:00,23.2,3.4,29.00,NW,315,8.1,8.1,42,0.00,CLR,,0.00,WeatherDisplay:10.37,2013-02-15 13:48:00,
2013-02-15 08:49:00,23.2,3.4,29.00,WNW,292,8.1,8.1,42,0.00,CLR,,0.00,WeatherDisplay:10.37,2013-02-15 13:49:00,
2013-02-15 08:50:00,23.2,3.4,29.00,WNW,292,6.9,6.9,42,0.00,CLR,,0.00,WeatherDisplay:10.37,2013-02-15 13:50:00,
2013-02-15 08:53:00,23.0,3.3,29.00,WSW,248,6.9,6.9,42,0.00,CLR,,0.00,WeatherDisplay:10.37,2013-02-15 13:53:00,
2013-02-15 08:54:00,23.0,3.3,29.00,West,270,6.9,6.9,42,0.00,CLR,,0.00,WeatherDisplay:10.37,2013-02-15 13:54:00,
2013-02-15 08:55:00,23.0,3.3,29.00,NNW,338,6.0,6.0,42,0.00,CLR,,0.00,WeatherDisplay:10.37,2013-02-15 13:55:00,
2013-02-15 08:58:00,23.0,3.3,29.00,WNW,292,8.1,8.1,42,0.00,CLR,,0.00,WeatherDisplay:10.37,2013-02-15 13:58:00,
2013-02-15 08:59:00,23.0,3.3,29.00,NNW,338,8.1,8.1,42,0.00,CLR,,0.00,WeatherDisplay:10.37,2013-02-15 13:59:00,
2013-02-15 09:00:00,22.8,3.1,29.00,NNW,338,8.1,8.1,42,0.00,CLR,,0.00,WeatherDisplay:10.37,2013-02-15 14:00:00,
2013-02-15 09:03:00,22.8,3.1,29.00,NNE,22,8.5,8.5,42,0.00,CLR,,0.00,WeatherDisplay:10.37,2013-02-15 14:03:00,
2013-02-15 09:04:00,22.8,3.1,29.00,NNW,338,12.7,12.7,42,0.00,CLR,,0.00,WeatherDisplay:10.37,2013-02-15 14:04:00,
2013-02-15 09:05:00,22.8,3.1,29.00,NNW,338,10.0,10.0,42,0.00,CLR,,0.00,WeatherDisplay:10.37,2013-02-15 14:05:00,
2013-02-15 09:08:00,22.8,2.6,29.00,NNW,338,8.1,8.1,41,0.00,CLR,,0.00,WeatherDisplay:10.37,2013-02-15 14:08:00,
2013-02-15 09:09:00,23.0,2.8,29.00,NNW,338,8.1,8.1,41,0.00,CLR,,0.00,WeatherDisplay:10.37,2013-02-15 14:09:00,
2013-02-15 09:10:00,23.0,2.8,29.00,North,0,10.4,10.4,41,0.00,CLR,,0.00,WeatherDisplay:10.37,2013-02-15 14:10:00,
2013-02-15 09:14:00,23.0,2.8,29.00,NNE,22,9.2,11.4,41,0.00,CLR,,0.00,WeatherDisplay:10.37,2013-02-15 14:14:00,
2013-02-15 09:15:00,23.2,2.4,29.00,NNE,22,11.5,11.5,40,0.00,CLR,,0.00,WeatherDisplay:10.37,2013-02-15 14:15:00,
2013-02-15 09:16:00,23.2,2.4,29.00,NW,315,8.1,8.1,40,0.00,CLR,,0.00,WeatherDisplay:10.37,2013-02-15 14:16:00,
2013-02-15 09:19:00,23.0,2.2,29.00,WNW,292,5.8,5.8,40,0.00,CLR,,0.00,WeatherDisplay:10.37,2013-02-15 14:19:00,
2013-02-15 09:20:00,23.2,1.8,29.00,NNW,338,5.8,5.8,39,0.00,CLR,,0.00,WeatherDisplay:10.37,2013-02-15 14:20:00,
2013-02-15 09:21:00,23.2,1.8,29.00,WSW,248,6.9,6.9,39,0.00,CLR,,0.00,WeatherDisplay:10.37,2013-02-15 14:21:00,
2013-02-15 09:24:00,23.4,2.0,29.00,NW,315,5.8,5.8,39,0.00,CLR,,0.00,WeatherDisplay:10.37,2013-02-15 14:24:00,
2013-02-15 09:25:00,23.4,2.0,29.00,NNW,338,6.9,6.9,39,0.00,CLR,,0.00,WeatherDisplay:10.37,2013-02-15 14:25:00,
2013-02-15 09:26:00,23.4,2.0,29.00,WNW,292,6.9,6.9,39,0.00,CLR,,0.00,WeatherDisplay:10.37,2013-02-15 14:26:00,
2013-02-15 09:29:00,23.4,1.4,29.00,NNW,338,13.8,13.8,38,0.00,CLR,,0.00,WeatherDisplay:10.37,2013-02-15 14:29:00,
2013-02-15 09:31:00,23.5,1.6,29.00,WNW,292,7.4,7.4,38,0.00,CLR,,0.00,WeatherDisplay:10.37,2013-02-15 14:31:00,
2013-02-15 09:34:00,23.5,1.6,29.00,NNW,338,8.1,8.1,38,0.00,CLR,,0.00,WeatherDisplay:10.37,2013-02-15 14:34:00,
2013-02-15 09:35:00,23.5,1.0,29.00,NNE,22,9.2,9.2,37,0.00,CLR,,0.00,WeatherDisplay:10.37,2013-02-15 14:35:00,
2013-02-15 09:36:00,23.5,1.0,29.00,NNW,338,6.9,6.9,37,0.00,CLR,,0.00,WeatherDisplay:10.37,2013-02-15 14:36:00,
2013-02-15 09:39:00,23.7,1.2,29.00,NNE,22,8.7,8.7,37,0.00,CLR,,0.00,WeatherDisplay:10.37,2013-02-15 14:39:00,
2013-02-15 09:40:00,23.7,1.2,29.00,WNW,292,9.2,9.2,37,0.00,CLR,,0.00,WeatherDisplay:10.37,2013-02-15 14:40:00,
2013-02-15 09:41:00,23.7,1.2,29.00,NNW,338,8.1,8.1,37,0.00,CLR,,0.00,WeatherDisplay:10.37,2013-02-15 14:41:00,
2013-02-15 09:44:00,23.9,0.8,29.00,NNW,338,12.3,12.3,36,0.00,CLR,,0.00,WeatherDisplay:10.37,2013-02-15 14:44:00,
2013-02-15 09:45:00,23.7,0.6,29.00,NNW,338,12.7,12.7,36,0.00,CLR,,0.00,WeatherDisplay:10.37,2013-02-15 14:45:00,
2013-02-15 09:46:00,23.9,0.8,29.00,NW,315,12.7,12.7,36,0.00,CLR,,0.00,WeatherDisplay:10.37,2013-02-15 14:46:00,
2013-02-15 09:49:00,24.3,1.1,29.00,NNE,22,10.0,10.0,36,0.00,CLR,,0.00,WeatherDisplay:10.37,2013-02-15 14:49:00,
2013-02-15 09:50:00,24.3,1.1,29.00,North,0,10.4,10.4,36,0.00,CLR,,0.00,WeatherDisplay:10.37,2013-02-15 14:50:00,
2013-02-15 09:51:00,24.1,0.9,29.00,NW,315,10.5,10.5,36,0.00,CLR,,0.00,WeatherDisplay:10.37,2013-02-15 14:51:00,
2013-02-15 09:52:00,24.1,0.9,29.00,NNE,22,13.2,13.2,36,0.00,CLR,,0.00,WeatherDisplay:10.37,2013-02-15 14:52:00,
2013-02-15 09:54:00,24.1,0.3,29.00,NNW,338,12.7,12.7,35,0.00,CLR,,0.00,WeatherDisplay:10.37,2013-02-15 14:54:00,
2013-02-15 09:55:00,24.3,0.5,29.00,North,0,13.8,13.8,35,0.00,CLR,,0.00,WeatherDisplay:10.37,2013-02-15 14:55:00,
2013-02-15 09:57:00,24.1,0.3,29.00,North,0,13.8,13.8,35,0.00,CLR,,0.00,WeatherDisplay:10.37,2013-02-15 14:57:00,
2013-02-15 09:59:00,24.1,0.3,29.00,NNW,338,16.1,16.1,35,0.00,CLR,,0.00,WeatherDisplay:10.37,2013-02-15 14:59:00,
2013-02-15 10:00:00,24.1,0.3,29.00,WNW,292,15.0,15.0,35,0.00,CLR,,0.00,WeatherDisplay:10.37,2013-02-15 15:00:00,
2013-02-15 10:02:00,23.9,0.2,29.00,NNW,338,12.7,12.7,35,0.00,CLR,,0.00,WeatherDisplay:10.37,2013-02-15 15:02:00,
2013-02-15 10:05:00,23.8,-0.6,29.00,NNW,346,7.0,14.0,34,0.00,CLR,,0.00,WeatherDisplay:10.37,2013-02-15 15:05:00,
2013-02-15 10:06:00,23.9,-0.4,29.00,North,0,9.2,9.2,34,0.00,CLR,,0.00,WeatherDisplay:10.37,2013-02-15 15:06:00,
2013-02-15 10:07:00,24.3,0.5,29.00,NNW,338,10.4,10.4,35,0.00,CLR,,0.00,WeatherDisplay:10.37,2013-02-15 15:07:00,
2013-02-15 10:10:00,24.4,0.7,29.00,NNW,338,11.5,11.5,35,0.00,CLR,,0.00,WeatherDisplay:10.37,2013-02-15 15:10:00,
2013-02-15 10:11:00,24.6,0.8,29.00,NNW,338,10.4,10.4,35,0.00,CLR,,0.00,WeatherDisplay:10.37,2013-02-15 15:11:00,
2013-02-15 10:12:00,24.8,1.0,29.00,NNW,338,10.4,10.4,35,0.00,CLR,,0.00,WeatherDisplay:10.37,2013-02-15 15:12:00,
2013-02-15 10:15:00,24.6,0.8,29.00,NNW,338,10.4,10.4,35,0.00,CLR,,0.00,WeatherDisplay:10.37,2013-02-15 15:15:00,
2013-02-15 10:16:00,24.6,0.8,29.00,NNE,22,10.4,10.4,35,0.00,CLR,,0.00,WeatherDisplay:10.37,2013-02-15 15:16:00,
2013-02-15 10:17:00,24.4,0.7,29.00,NW,315,7.4,7.6,35,0.00,CLR,,0.00,WeatherDisplay:10.37,2013-02-15 15:17:00,
2013-02-15 10:20:00,24.6,0.2,29.00,NNE,22,12.7,12.7,34,0.00,CLR,,0.00,WeatherDisplay:10.37,2013-02-15 15:20:00,
2013-02-15 10:21:00,24.6,0.2,29.00,North,0,12.7,12.7,34,0.00,CLR,,0.00,WeatherDisplay:10.37,2013-02-15 15:21:00,
2013-02-15 10:22:00,24.8,0.4,29.00,NNW,338,10.4,10.4,34,0.00,CLR,,0.00,WeatherDisplay:10.37,2013-02-15 15:22:00,
2013-02-15 10:23:00,24.8,0.4,29.00,NNW,338,9.2,9.2,34,0.00,CLR,,0.00,WeatherDisplay:10.37,2013-02-15 15:23:00,
2013-02-15 10:26:00,24.8,0.4,29.00,SSW,202,5.8,5.8,34,0.00,CLR,,0.00,WeatherDisplay:10.37,2013-02-15 15:26:00,
2013-02-15 10:27:00,24.8,0.4,29.00,WNW,292,5.8,5.8,34,0.00,CLR,,0.00,WeatherDisplay:10.37,2013-02-15 15:27:00,
2013-02-15 10:28:00,25.2,0.0,29.00,North,0,8.1,8.1,33,0.00,CLR,,0.00,WeatherDisplay:10.37,2013-02-15 15:28:00,
2013-02-15 10:31:00,25.3,0.8,29.00,NW,315,9.2,9.2,34,0.00,CLR,,0.00,WeatherDisplay:10.37,2013-02-15 15:31:00,
2013-02-15 10:32:00,25.3,0.8,29.00,NNE,22,11.5,11.5,34,0.00,CLR,,0.00,WeatherDisplay:10.37,2013-02-15 15:32:00,
2013-02-15 10:33:00,25.3,0.8,29.00,NNW,338,12.7,12.7,34,0.00,CLR,,0.00,WeatherDisplay:10.37,2013-02-15 15:33:00,
2013-02-15 10:36:00,25.0,-0.1,29.00,NNW,338,11.5,11.5,33,0.00,CLR,,0.00,WeatherDisplay:10.37,2013-02-15 15:36:00,
2013-02-15 10:37:00,25.0,-0.1,29.00,NNW,338,10.4,10.4,33,0.00,CLR,,0.00,WeatherDisplay:10.37,2013-02-15 15:37:00,
2013-02-15 10:38:00,25.0,-0.1,29.00,NNW,338,10.4,10.4,33,0.00,CLR,,0.00,WeatherDisplay:10.37,2013-02-15 15:38:00,
2013-02-15 10:41:00,25.3,0.2,29.00,NNE,22,12.7,12.7,33,0.00,CLR,,0.00,WeatherDisplay:10.37,2013-02-15 15:41:00,
2013-02-15 10:43:00,25.2,0.0,29.00,NNW,338,17.3,17.3,33,0.00,CLR,,0.00,WeatherDisplay:10.37,2013-02-15 15:43:00,
2013-02-15 10:44:00,25.2,0.0,29.00,WNW,292,12.7,12.7,33,0.00,CLR,,0.00,WeatherDisplay:10.37,2013-02-15 15:44:00,
2013-02-15 10:47:00,25.3,0.2,29.00,NW,315,11.5,11.5,33,0.00,CLR,,0.00,WeatherDisplay:10.37,2013-02-15 15:47:00,
2013-02-15 10:48:00,25.3,0.2,29.00,NNE,22,10.4,10.4,33,0.00,CLR,,0.00,WeatherDisplay:10.37,2013-02-15 15:48:00,
2013-02-15 10:50:00,25.2,0.0,29.00,NNW,338,12.7,12.7,33,0.00,CLR,,0.00,WeatherDisplay:10.37,2013-02-15 15:50:00,
2013-02-15 10:52:00,25.0,-0.1,29.00,North,0,20.7,20.7,33,0.00,CLR,,0.00,WeatherDisplay:10.37,2013-02-15 15:52:00,
2013-02-15 10:53:00,25.2,0.0,29.00,NNW,338,20.7,20.7,33,0.00,CLR,,0.00,WeatherDisplay:10.37,2013-02-15 15:53:00,
2013-02-15 10:55:00,25.2,0.0,29.00,NNW,338,9.2,9.2,33,0.00,CLR,,0.00,WeatherDisplay:10.37,2013-02-15 15:55:00,
2013-02-15 10:57:00,25.3,0.2,29.00,North,0,17.3,17.3,33,0.00,CLR,,0.00,WeatherDisplay:10.37,2013-02-15 15:57:00,
2013-02-15 10:58:00,25.3,0.2,29.00,NNE,22,17.3,17.3,33,0.00,CLR,,0.00,WeatherDisplay:10.37,2013-02-15 15:58:00,
2013-02-15 11:01:00,25.5,0.4,29.00,WNW,292,12.7,12.7,33,0.00,CLR,,0.00,WeatherDisplay:10.37,2013-02-15 16:01:00,
2013-02-15 11:02:00,25.3,0.2,29.00,WNW,292,5.8,5.8,33,0.00,CLR,,0.00,WeatherDisplay:10.37,2013-02-15 16:02:00,
2013-02-15 11:03:00,25.3,0.2,29.00,NNW,338,5.8,5.8,33,0.00,CLR,,0.00,WeatherDisplay:10.37,2013-02-15 16:03:00,
2013-02-15 11:06:00,25.7,0.5,29.00,WNW,292,5.9,5.9,33,0.00,CLR,,0.00,WeatherDisplay:10.37,2013-02-15 16:06:00,
2013-02-15 11:07:00,25.7,-0.1,29.00,SSW,202,8.1,8.1,32,0.00,CLR,,0.00,WeatherDisplay:10.37,2013-02-15 16:07:00,
2013-02-15 11:08:00,25.7,-0.1,29.00,WNW,292,8.1,8.1,32,0.00,CLR,,0.00,WeatherDisplay:10.37,2013-02-15 16:08:00,
2013-02-15 11:11:00,25.3,-0.5,29.00,NNW,338,12.7,12.7,32,0.00,CLR,,0.00,WeatherDisplay:10.37,2013-02-15 16:11:00,
2013-02-15 11:12:00,25.3,-0.5,29.00,NW,315,12.7,12.7,32,0.00,CLR,,0.00,WeatherDisplay:10.37,2013-02-15 16:12:00,
2013-02-15 11:13:00,25.3,-0.5,29.00,NW,315,10.4,10.4,32,0.00,CLR,,0.00,WeatherDisplay:10.37,2013-02-15 16:13:00,
2013-02-15 11:16:00,25.2,-0.6,29.03,NNW,338,12.7,12.7,32,0.00,CLR,,0.00,WeatherDisplay:10.37,2013-02-15 16:16:00,
2013-02-15 11:18:00,25.3,-0.5,29.03,North,0,10.2,10.2,32,0.00,CLR,,0.00,WeatherDisplay:10.37,2013-02-15 16:18:00,
2013-02-15 11:19:00,25.3,-0.5,29.03,North,0,13.8,13.8,32,0.00,CLR,,0.00,WeatherDisplay:10.37,2013-02-15 16:19:00,
2013-02-15 11:21:00,25.5,-0.3,29.03,NNE,22,13.5,13.5,32,0.00,CLR,,0.00,WeatherDisplay:10.37,2013-02-15 16:21:00,
2013-02-15 11:23:00,25.7,-0.1,29.03,NNW,338,15.0,15.0,32,0.00,CLR,,0.00,WeatherDisplay:10.37,2013-02-15 16:23:00,
2013-02-15 11:24:00,25.7,-0.1,29.03,NNW,338,13.8,13.8,32,0.00,CLR,,0.00,WeatherDisplay:10.37,2013-02-15 16:24:00,
2013-02-15 11:26:00,25.9,0.0,29.03,NNE,22,12.7,12.7,32,0.00,CLR,,0.00,WeatherDisplay:10.37,2013-02-15 16:26:00,
2013-02-15 11:28:00,25.9,0.0,29.03,NNW,338,9.2,9.2,32,0.00,CLR,,0.00,WeatherDisplay:10.37,2013-02-15 16:28:00,
2013-02-15 11:29:00,26.1,0.2,29.03,NNE,22,10.4,10.4,32,0.00,CLR,,0.00,WeatherDisplay:10.37,2013-02-15 16:29:00,
2013-02-15 11:32:00,26.1,0.2,29.03,NW,315,6.2,6.2,32,0.00,CLR,,0.00,WeatherDisplay:10.37,2013-02-15 16:32:00,
2013-02-15 11:33:00,26.1,0.2,29.03,NNW,338,8.1,8.1,32,0.00,CLR,,0.00,WeatherDisplay:10.37,2013-02-15 16:33:00,
2013-02-15 11:34:00,26.1,0.2,29.03,NW,315,8.1,8.1,32,0.00,CLR,,0.00,WeatherDisplay:10.37,2013-02-15 16:34:00,
2013-02-15 11:37:00,26.4,0.5,29.03,WNW,292,11.8,11.8,32,0.00,CLR,,0.00,WeatherDisplay:10.37,2013-02-15 16:37:00,
2013-02-15 11:38:00,26.6,0.7,29.03,SSW,202,11.5,11.5,32,0.00,CLR,,0.00,WeatherDisplay:10.37,2013-02-15 16:38:00,
2013-02-15 11:39:00,26.6,0.7,29.03,NNW,338,8.1,8.1,32,0.00,CLR,,0.00,WeatherDisplay:10.37,2013-02-15 16:39:00,
2013-02-15 11:42:00,27.0,0.3,29.03,NNE,22,5.8,5.8,31,0.00,CLR,,0.00,WeatherDisplay:10.37,2013-02-15 16:42:00,
2013-02-15 11:43:00,27.1,0.4,29.03,WSW,248,5.8,5.8,31,0.00,CLR,,0.00,WeatherDisplay:10.37,2013-02-15 16:43:00,
2013-02-15 11:44:00,27.1,0.4,29.03,WSW,248,5.8,5.8,31,0.00,CLR,,0.00,WeatherDisplay:10.37,2013-02-15 16:44:00,
2013-02-15 11:45:00,27.1,0.4,29.03,SSE,158,9.4,9.4,31,0.00,CLR,,0.00,WeatherDisplay:10.37,2013-02-15 16:45:00,
2013-02-15 11:47:00,27.0,0.3,29.03,WNW,292,8.5,8.5,31,0.00,CLR,,0.00,WeatherDisplay:10.37,2013-02-15 16:47:00,
2013-02-15 11:49:00,26.8,0.1,29.03,SSE,158,6.9,6.9,31,0.00,CLR,,0.00,WeatherDisplay:10.37,2013-02-15 16:49:00,
2013-02-15 11:50:00,26.6,0.0,29.03,SSE,158,9.2,9.2,31,0.00,CLR,,0.00,WeatherDisplay:10.37,2013-02-15 16:50:00,
2013-02-15 11:52:00,26.8,0.1,29.03,WNW,292,13.8,13.8,31,0.00,CLR,,0.00,WeatherDisplay:10.37,2013-02-15 16:52:00,
2013-02-15 11:54:00,26.8,0.1,29.03,NW,315,8.1,8.1,31,0.00,CLR,,0.00,WeatherDisplay:10.37,2013-02-15 16:54:00,
2013-02-15 11:55:00,26.6,0.0,29.03,NNW,338,10.7,10.7,31,0.00,CLR,,0.00,WeatherDisplay:10.37,2013-02-15 16:55:00,
2013-02-15 11:58:00,26.6,0.0,29.03,WNW,292,9.2,9.2,31,0.00,CLR,,0.00,WeatherDisplay:10.37,2013-02-15 16:58:00,
2013-02-15 11:59:00,26.6,0.0,29.03,WSW,248,6.2,6.2,31,0.00,CLR,,0.00,WeatherDisplay:10.37,2013-02-15 16:59:00,
2013-02-15 12:00:00,27.7,0.9,29.03,NNW,338,5.8,5.8,31,0.00,CLR,,0.00,WeatherDisplay:10.37,2013-02-15 17:00:00,
2013-02-15 12:01:00,27.7,0.9,29.03,NNW,338,8.1,8.1,31,0.00,CLR,,0.00,WeatherDisplay:10.37,2013-02-15 17:01:00,
2013-02-15 12:03:00,26.8,0.1,29.03,WNW,292,8.1,8.1,31,0.00,CLR,,0.00,WeatherDisplay:10.37,2013-02-15 17:03:00,
2013-02-15 12:04:00,26.8,0.1,29.03,WNW,292,7.6,7.6,31,0.00,CLR,,0.00,WeatherDisplay:10.37,2013-02-15 17:04:00,
2013-02-15 12:05:00,27.0,0.3,29.03,NNW,338,11.5,11.5,31,0.00,CLR,,0.00,WeatherDisplay:10.37,2013-02-15 17:05:00,
2013-02-15 12:06:00,27.0,0.3,29.03,WSW,248,11.5,11.5,31,0.00,CLR,,0.00,WeatherDisplay:10.37,2013-02-15 17:06:00,
2013-02-15 12:08:00,27.3,0.6,29.03,NNW,338,8.1,8.1,31,0.00,CLR,,0.00,WeatherDisplay:10.37,2013-02-15 17:08:00,
2013-02-15 12:09:00,27.1,0.4,29.03,SSW,202,8.1,8.1,31,0.00,CLR,,0.00,WeatherDisplay:10.37,2013-02-15 17:09:00,
2013-02-15 12:10:00,26.8,0.1,29.03,NNW,338,11.5,11.5,31,0.00,CLR,,0.00,WeatherDisplay:10.37,2013-02-15 17:10:00,
2013-02-15 12:11:00,26.2,-0.3,29.03,WNW,292,9.2,9.2,31,0.00,CLR,,0.00,WeatherDisplay:10.37,2013-02-15 17:11:00,
2013-02-15 12:13:00,27.3,0.6,29.03,WSW,248,4.6,4.6,31,0.00,CLR,,0.00,WeatherDisplay:10.37,2013-02-15 17:13:00,
2013-02-15 12:14:00,28.4,1.6,29.03,SSW,202,3.6,3.6,31,0.00,CLR,,0.00,WeatherDisplay:10.37,2013-02-15 17:14:00,
2013-02-15 12:15:00,28.4,1.6,29.03,NNW,338,7.8,7.8,31,0.00,CLR,,0.00,WeatherDisplay:10.37,2013-02-15 17:15:00,
2013-02-15 12:16:00,29.5,1.8,29.03,North,0,8.1,8.1,30,0.00,CLR,,0.00,WeatherDisplay:10.37,2013-02-15 17:16:00,
2013-02-15 12:18:00,29.5,1.8,29.03,North,0,9.8,9.8,30,0.00,CLR,,0.00,WeatherDisplay:10.37,2013-02-15 17:18:00,
2013-02-15 12:19:00,30.2,2.4,29.03,NNE,22,11.5,11.5,30,0.00,CLR,,0.00,WeatherDisplay:10.37,2013-02-15 17:19:00,
2013-02-15 12:21:00,28.6,-0.5,29.03,NW,315,10.4,10.4,28,0.00,CLR,,0.00,WeatherDisplay:10.37,2013-02-15 17:21:00,
2013-02-15 12:23:00,27.5,-1.4,29.03,NNW,338,5.4,5.4,28,0.00,CLR,,0.00,WeatherDisplay:10.37,2013-02-15 17:23:00,
2013-02-15 12:24:00,27.5,-1.4,29.03,WSW,248,8.1,8.1,28,0.00,CLR,,0.00,WeatherDisplay:10.37,2013-02-15 17:24:00,
2013-02-15 12:26:00,27.5,-1.4,29.03,WNW,292,5.8,5.8,28,0.00,CLR,,0.00,WeatherDisplay:10.37,2013-02-15 17:26:00,
2013-02-15 12:29:00,26.8,-2.0,29.03,NNW,338,9.2,9.2,28,0.00,CLR,,0.00,WeatherDisplay:10.37,2013-02-15 17:29:00,
2013-02-15 12:30:00,26.7,-2.1,29.03,WNW,298,5.0,10.0,28,0.00,CLR,,0.00,WeatherDisplay:10.37,2013-02-15 17:30:00,
2013-02-15 12:31:00,27.0,-1.9,29.03,WNW,292,10.4,10.4,28,0.00,CLR,,0.00,WeatherDisplay:10.37,2013-02-15 17:31:00,
2013-02-15 12:34:00,26.6,-1.4,29.03,NNW,338,11.5,11.5,29,0.00,CLR,,0.00,WeatherDisplay:10.37,2013-02-15 17:34:00,
2013-02-15 12:35:00,26.6,-1.4,29.03,NW,325,7.0,13.0,29,0.00,CLR,,0.00,WeatherDisplay:10.37,2013-02-15 17:35:00,
2013-02-15 12:36:00,26.6,-1.4,29.03,NNE,22,6.9,6.9,29,0.00,CLR,,0.00,WeatherDisplay:10.37,2013-02-15 17:36:00,
2013-02-15 12:39:00,26.8,-2.0,29.03,NNE,22,10.4,10.4,28,0.00,CLR,,0.00,WeatherDisplay:10.37,2013-02-15 17:39:00,
2013-02-15 12:40:00,26.8,-2.0,29.03,WSW,248,9.2,9.2,28,0.00,CLR,,0.00,WeatherDisplay:10.37,2013-02-15 17:40:00,
2013-02-15 12:41:00,26.8,-2.0,29.03,NNW,338,6.9,6.9,28,0.00,CLR,,0.00,WeatherDisplay:10.37,2013-02-15 17:41:00,
2013-02-15 12:42:00,26.6,-1.4,29.03,NNW,338,6.9,6.9,29,0.00,CLR,,0.00,WeatherDisplay:10.37,2013-02-15 17:42:00,
2013-02-15 12:44:00,26.6,-1.4,29.03,NNW,338,10.4,10.4,29,0.00,CLR,,0.00,WeatherDisplay:10.37,2013-02-15 17:44:00,
2013-02-15 12:45:00,27.1,-1.7,29.03,NNE,22,10.4,10.4,28,0.00,CLR,,0.00,WeatherDisplay:10.37,2013-02-15 17:45:00,
2013-02-15 12:46:00,27.7,-1.2,29.03,NNW,338,10.4,10.4,28,0.00,CLR,,0.00,WeatherDisplay:10.37,2013-02-15 17:46:00,
2013-02-15 12:47:00,27.7,-1.2,29.03,North,0,10.4,10.4,28,0.00,CLR,,0.00,WeatherDisplay:10.37,2013-02-15 17:47:00,
2013-02-15 12:49:00,27.0,-1.9,29.03,NNW,338,9.2,9.2,28,0.00,CLR,,0.00,WeatherDisplay:10.37,2013-02-15 17:49:00,
2013-02-15 12:50:00,27.0,-1.9,29.03,NW,315,6.9,6.9,28,0.00,CLR,,0.00,WeatherDisplay:10.37,2013-02-15 17:50:00,
2013-02-15 12:51:00,27.0,-1.9,29.03,NW,315,5.8,5.8,28,0.00,CLR,,0.00,WeatherDisplay:10.37,2013-02-15 17:51:00,
2013-02-15 12:52:00,27.0,-1.9,29.03,NW,315,9.2,9.2,28,0.00,CLR,,0.00,WeatherDisplay:10.37,2013-02-15 17:52:00,
2013-02-15 12:55:00,28.0,-0.9,29.03,NNW,338,11.5,11.5,28,0.00,CLR,,0.00,WeatherDisplay:10.37,2013-02-15 17:55:00,
2013-02-15 12:56:00,28.9,-0.1,29.03,North,0,11.5,11.5,28,0.00,CLR,,0.00,WeatherDisplay:10.37,2013-02-15 17:56:00,
2013-02-15 12:57:00,28.9,-0.1,29.03,NNW,338,11.5,11.5,28,0.00,CLR,,0.00,WeatherDisplay:10.37,2013-02-15 17:57:00,
2013-02-15 13:00:00,28.6,-2.9,29.03,North,0,10.2,10.2,25,0.00,CLR,,0.00,WeatherDisplay:10.37,2013-02-15 18:00:00,
2013-02-15 13:02:00,28.4,-2.2,29.03,WSW,248,9.2,9.2,26,0.00,CLR,,0.00,WeatherDisplay:10.37,2013-02-15 18:02:00,
2013-02-15 13:05:00,30.7,-1.0,29.03,NNW,338,7.8,7.8,25,0.00,CLR,,0.00,WeatherDisplay:10.37,2013-02-15 18:05:00,
2013-02-15 13:06:00,30.7,-1.0,29.03,NNW,338,11.5,11.5,25,0.00,CLR,,0.00,WeatherDisplay:10.37,2013-02-15 18:06:00,
2013-02-15 13:07:00,29.7,-1.9,29.03,NNW,338,10.4,10.4,25,0.00,CLR,,0.00,WeatherDisplay:10.37,2013-02-15 18:07:00,
2013-02-15 13:11:00,29.3,-2.2,29.03,NNW,338,5.8,5.8,25,0.00,CLR,,0.00,WeatherDisplay:10.37,2013-02-15 18:11:00,
2013-02-15 13:12:00,28.8,-2.7,29.03,WSW,248,5.8,5.8,25,0.00,CLR,,0.00,WeatherDisplay:10.37,2013-02-15 18:12:00,
2013-02-15 13:16:00,28.2,-2.3,29.03,SSE,158,6.9,6.9,26,0.00,CLR,,0.00,WeatherDisplay:10.37,2013-02-15 18:16:00,
2013-02-15 13:17:00,27.9,-2.7,29.03,SSW,202,5.8,5.8,26,0.00,CLR,,0.00,WeatherDisplay:10.37,2013-02-15 18:17:00,
2013-02-15 13:21:00,28.0,-2.5,29.03,NNW,338,11.5,11.5,26,0.00,CLR,,0.00,WeatherDisplay:10.37,2013-02-15 18:21:00,
2013-02-15 13:22:00,27.9,-2.7,29.03,NNW,338,10.4,10.4,26,0.00,CLR,,0.00,WeatherDisplay:10.37,2013-02-15 18:22:00,
2013-02-15 13:26:00,27.0,-3.4,29.03,WSW,248,5.8,5.8,26,0.00,CLR,,0.00,WeatherDisplay:10.37,2013-02-15 18:26:00,
2013-02-15 13:27:00,27.3,-3.1,29.03,NNE,22,10.4,10.4,26,0.00,CLR,,0.00,WeatherDisplay:10.37,2013-02-15 18:27:00,
2013-02-15 13:28:00,27.1,-3.3,29.03,North,0,10.4,10.4,26,0.00,CLR,,0.00,WeatherDisplay:10.37,2013-02-15 18:28:00,
2013-02-15 13:31:00,27.3,-3.1,29.00,NNW,338,13.8,13.8,26,0.00,CLR,,0.00,WeatherDisplay:10.37,2013-02-15 18:31:00,
2013-02-15 13:32:00,27.5,-3.0,29.00,NNW,338,13.8,13.8,26,0.00,CLR,,0.00,WeatherDisplay:10.37,2013-02-15 18:32:00,
2013-02-15 13:33:00,27.5,-3.0,29.00,North,0,12.7,12.7,26,0.00,CLR,,0.00,WeatherDisplay:10.37,2013-02-15 18:33:00,
2013-02-15 13:36:00,27.3,-1.6,29.00,NNE,22,5.8,5.8,28,0.00,CLR,,0.00,WeatherDisplay:10.37,2013-02-15 18:36:00,
2013-02-15 13:37:00,27.3,-1.6,29.00,North,0,4.6,4.6,28,0.00,CLR,,0.00,WeatherDisplay:10.37,2013-02-15 18:37:00,
2013-02-15 13:38:00,27.3,-1.6,29.00,NNW,338,8.1,8.1,28,0.00,CLR,,0.00,WeatherDisplay:10.37,2013-02-15 18:38:00,
2013-02-15 13:41:00,27.0,-1.9,29.00,North,0,5.8,5.8,28,0.00,CLR,,0.00,WeatherDisplay:10.37,2013-02-15 18:41:00,
2013-02-15 13:42:00,27.1,-1.7,29.00,North,0,8.5,8.5,28,0.00,CLR,,0.00,WeatherDisplay:10.37,2013-02-15 18:42:00,
2013-02-15 13:43:00,27.0,-1.9,29.00,NNW,338,10.4,10.4,28,0.00,CLR,,0.00,WeatherDisplay:10.37,2013-02-15 18:43:00,
2013-02-15 13:46:00,27.0,-1.9,29.00,NNE,22,16.1,16.1,28,0.00,CLR,,0.00,WeatherDisplay:10.37,2013-02-15 18:46:00,
2013-02-15 13:47:00,27.0,-1.9,29.00,NNE,22,15.0,15.0,28,0.00,CLR,,0.00,WeatherDisplay:10.37,2013-02-15 18:47:00,
2013-02-15 13:48:00,27.0,-3.4,29.00,North,0,13.8,13.8,26,0.00,CLR,,0.00,WeatherDisplay:10.37,2013-02-15 18:48:00,
2013-02-15 13:52:00,26.4,-3.9,29.00,NNW,338,10.4,10.4,26,0.00,CLR,,0.00,WeatherDisplay:10.37,2013-02-15 18:52:00,
2013-02-15 13:53:00,26.4,-3.9,29.00,WNW,292,8.1,8.1,26,0.00,CLR,,0.00,WeatherDisplay:10.37,2013-02-15 18:53:00,
2013-02-15 13:57:00,26.6,-1.4,29.00,NNE,22,6.9,6.9,29,0.00,CLR,,0.00,WeatherDisplay:10.37,2013-02-15 18:57:00,
2013-02-15 13:58:00,26.8,-2.0,29.00,NNE,22,10.2,10.2,28,0.00,CLR,,0.00,WeatherDisplay:10.37,2013-02-15 18:58:00,
2013-02-15 14:02:00,26.6,-3.7,29.03,West,270,5.9,5.9,26,0.00,CLR,,0.00,WeatherDisplay:10.37,2013-02-15 19:02:00,
2013-02-15 14:03:00,26.2,-4.1,29.03,WNW,292,8.1,8.1,26,0.00,CLR,,0.00,WeatherDisplay:10.37,2013-02-15 19:03:00,
2013-02-15 14:07:00,26.4,-3.9,29.03,WNW,292,4.6,4.6,26,0.00,CLR,,0.00,WeatherDisplay:10.37,2013-02-15 19:07:00,
2013-02-15 14:08:00,26.4,-1.6,29.03,NNW,338,6.0,6.0,29,0.00,CLR,,0.00,WeatherDisplay:10.37,2013-02-15 19:08:00,
2013-02-15 14:12:00,26.1,-4.2,29.03,NW,315,6.9,6.9,26,0.00,CLR,,0.00,WeatherDisplay:10.37,2013-02-15 19:12:00,
2013-02-15 14:13:00,26.1,-4.2,29.03,NNE,22,5.9,5.9,26,0.00,CLR,,0.00,WeatherDisplay:10.37,2013-02-15 19:13:00,
2013-02-15 14:17:00,26.1,-4.2,29.00,North,0,10.4,10.4,26,0.00,CLR,,0.00,WeatherDisplay:10.37,2013-02-15 19:17:00,
2013-02-15 14:18:00,26.1,-4.2,29.00,WNW,292,10.7,10.7,26,0.00,CLR,,0.00,WeatherDisplay:10.37,2013-02-15 19:18:00,
2013-02-15 14:19:00,26.1,-4.2,29.00,NNE,22,10.4,10.4,26,0.00,CLR,,0.00,WeatherDisplay:10.37,2013-02-15 19:19:00,
2013-02-15 14:22:00,26.1,-4.2,29.00,NNW,338,5.8,5.8,26,0.00,CLR,,0.00,WeatherDisplay:10.37,2013-02-15 19:22:00,
2013-02-15 14:23:00,26.1,-1.9,29.00,NNW,338,5.8,5.8,29,0.00,CLR,,0.00,WeatherDisplay:10.37,2013-02-15 19:23:00,
2013-02-15 14:24:00,26.1,-1.9,29.00,NNW,338,5.8,5.8,29,0.00,CLR,,0.00,WeatherDisplay:10.37,2013-02-15 19:24:00,
2013-02-15 14:28:00,25.9,-2.1,29.00,NW,315,5.8,6.9,29,0.00,CLR,,0.00,WeatherDisplay:10.37,2013-02-15 19:28:00,
2013-02-15 14:29:00,25.9,-2.1,29.00,NNW,338,9.2,9.2,29,0.00,CLR,,0.00,WeatherDisplay:10.37,2013-02-15 19:29:00,
2013-02-15 14:33:00,25.9,-2.1,29.00,NNW,338,5.9,5.9,29,0.00,CLR,,0.00,WeatherDisplay:10.37,2013-02-15 19:33:00,
2013-02-15 14:34:00,25.7,-2.2,29.00,WNW,292,5.8,5.9,29,0.00,CLR,,0.00,WeatherDisplay:10.37,2013-02-15 19:34:00,
2013-02-15 14:38:00,25.9,-2.1,29.00,NNW,338,7.6,7.6,29,0.00,CLR,,0.00,WeatherDisplay:10.37,2013-02-15 19:38:00,
2013-02-15 14:39:00,25.9,-2.1,29.00,NNE,22,8.1,8.5,29,0.00,CLR,,0.00,WeatherDisplay:10.37,2013-02-15 19:39:00,
2013-02-15 14:43:00,25.7,-2.2,29.00,NW,315,7.4,7.4,29,0.00,CLR,,0.00,WeatherDisplay:10.37,2013-02-15 19:43:00,
2013-02-15 14:44:00,25.7,-2.2,29.00,WNW,292,6.9,6.9,29,0.00,CLR,,0.00,WeatherDisplay:10.37,2013-02-15 19:44:00,
2013-02-15 14:48:00,25.5,-2.4,29.03,WNW,292,6.9,6.9,29,0.00,CLR,,0.00,WeatherDisplay:10.37,2013-02-15 19:48:00,
2013-02-15 14:49:00,25.5,-2.4,29.03,NNW,338,7.4,7.4,29,0.00,CLR,,0.00,WeatherDisplay:10.37,2013-02-15 19:49:00,
2013-02-15 14:54:00,25.5,-2.4,29.03,NW,315,2.3,2.3,29,0.00,CLR,,0.00,WeatherDisplay:10.37,2013-02-15 19:54:00,
2013-02-15 14:55:00,25.7,-2.2,29.03,West,270,4.7,4.7,29,0.00,CLR,,0.00,WeatherDisplay:10.37,2013-02-15 19:55:00,
2013-02-15 14:59:00,25.7,-2.2,29.03,WNW,292,8.1,8.1,29,0.00,CLR,,0.00,WeatherDisplay:10.37,2013-02-15 19:59:00,
2013-02-15 15:00:00,25.7,-2.2,29.03,West,281,6.0,8.0,29,0.00,CLR,,0.00,WeatherDisplay:10.37,2013-02-15 20:00:00,
2013-02-15 15:04:00,25.5,-2.4,29.03,WNW,292,4.9,4.9,29,0.00,CLR,,0.00,WeatherDisplay:10.37,2013-02-15 20:04:00,
2013-02-15 15:05:00,25.5,-2.4,29.03,NNW,338,6.4,6.4,29,0.00,CLR,,0.00,WeatherDisplay:10.37,2013-02-15 20:05:00,
2013-02-15 15:09:00,25.3,-2.5,29.03,NNW,338,4.3,4.3,29,0.00,CLR,,0.00,WeatherDisplay:10.37,2013-02-15 20:09:00,
2013-02-15 15:10:00,25.5,-2.4,29.03,NNW,338,5.8,5.8,29,0.00,CLR,,0.00,WeatherDisplay:10.37,2013-02-15 20:10:00,
2013-02-15 15:11:00,25.3,-2.5,29.03,North,0,4.6,4.6,29,0.00,CLR,,0.00,WeatherDisplay:10.37,2013-02-15 20:11:00,
2013-02-15 15:14:00,25.5,-2.4,29.03,NNW,338,5.9,5.9,29,0.00,CLR,,0.00,WeatherDisplay:10.37,2013-02-15 20:14:00,
2013-02-15 15:15:00,25.5,-2.4,29.03,NNW,338,9.7,9.7,29,0.00,CLR,,0.00,WeatherDisplay:10.37,2013-02-15 20:15:00,
2013-02-15 15:16:00,25.3,-2.5,29.03,WNW,292,12.7,12.7,29,0.00,CLR,,0.00,WeatherDisplay:10.37,2013-02-15 20:16:00,
2013-02-15 15:19:00,25.3,-2.5,29.03,NNW,338,9.2,9.2,29,0.00,CLR,,0.00,WeatherDisplay:10.37,2013-02-15 20:19:00,
2013-02-15 15:20:00,25.3,-2.5,29.03,NW,315,6.9,6.9,29,0.00,CLR,,0.00,WeatherDisplay:10.37,2013-02-15 20:20:00,
2013-02-15 15:21:00,25.3,-2.5,29.03,NNE,22,10.9,10.9,29,0.00,CLR,,0.00,WeatherDisplay:10.37,2013-02-15 20:21:00,
2013-02-15 15:24:00,25.2,-2.7,29.03,NNW,338,10.9,10.9,29,0.00,CLR,,0.00,WeatherDisplay:10.37,2013-02-15 20:24:00,
2013-02-15 15:25:00,25.2,-2.7,29.03,NNE,22,11.5,11.5,29,0.00,CLR,,0.00,WeatherDisplay:10.37,2013-02-15 20:25:00,
2013-02-15 15:26:00,25.2,-2.7,29.03,NW,315,11.5,11.5,29,0.00,CLR,,0.00,WeatherDisplay:10.37,2013-02-15 20:26:00,
2013-02-15 15:29:00,25.2,-2.7,29.03,WNW,292,8.1,8.1,29,0.00,CLR,,0.00,WeatherDisplay:10.37,2013-02-15 20:29:00,
2013-02-15 15:30:00,25.2,-2.7,29.03,NNW,338,8.1,8.1,29,0.00,CLR,,0.00,WeatherDisplay:10.37,2013-02-15 20:30:00,
2013-02-15 15:31:00,25.3,-1.1,29.03,NNW,338,8.1,8.1,31,0.00,CLR,,0.00,WeatherDisplay:10.37,2013-02-15 20:31:00,
2013-02-15 15:32:00,25.3,-1.1,29.03,NNW,338,8.1,8.1,31,0.00,CLR,,0.00,WeatherDisplay:10.37,2013-02-15 20:32:00,
2013-02-15 15:34:00,25.3,-2.5,29.03,NNW,338,10.4,10.4,29,0.00,CLR,,0.00,WeatherDisplay:10.37,2013-02-15 20:34:00,
2013-02-15 15:35:00,25.3,-2.5,29.03,North,0,12.3,12.3,29,0.00,CLR,,0.00,WeatherDisplay:10.37,2013-02-15 20:35:00,
2013-02-15 15:37:00,25.3,-2.5,29.03,WNW,292,10.4,10.4,29,0.00,CLR,,0.00,WeatherDisplay:10.37,2013-02-15 20:37:00,
2013-02-15 15:39:00,25.3,-2.5,29.03,NNE,22,7.6,7.6,29,0.00,CLR,,0.00,WeatherDisplay:10.37,2013-02-15 20:39:00,
2013-02-15 15:40:00,25.2,-2.7,29.03,NNW,338,8.1,8.1,29,0.00,CLR,,0.00,WeatherDisplay:10.37,2013-02-15 20:40:00,
2013-02-15 15:42:00,25.3,-2.5,29.03,NNW,338,11.5,11.5,29,0.00,CLR,,0.00,WeatherDisplay:10.37,2013-02-15 20:42:00,
2013-02-15 15:44:00,25.3,-2.5,29.03,NNW,338,10.4,10.4,29,0.00,CLR,,0.00,WeatherDisplay:10.37,2013-02-15 20:44:00,
2013-02-15 15:45:00,25.3,-2.5,29.03,NNW,338,9.2,9.2,29,0.00,CLR,,0.00,WeatherDisplay:10.37,2013-02-15 20:45:00,
2013-02-15 15:48:00,25.2,-2.7,29.03,West,270,5.8,5.8,29,0.00,CLR,,0.00,WeatherDisplay:10.37,2013-02-15 20:48:00,
2013-02-15 15:50:00,25.3,-2.5,29.03,WNW,292,2.6,2.6,29,0.00,CLR,,0.00,WeatherDisplay:10.37,2013-02-15 20:50:00,
2013-02-15 15:53:00,25.5,-2.4,29.03,NNW,338,10.4,10.4,29,0.00,CLR,,0.00,WeatherDisplay:10.37,2013-02-15 20:53:00,
2013-02-15 15:55:00,25.5,-2.4,29.03,North,0,10.4,10.4,29,0.00,CLR,,0.00,WeatherDisplay:10.37,2013-02-15 20:55:00,
2013-02-15 15:58:00,25.7,-0.8,29.03,WNW,292,9.2,9.2,31,0.00,CLR,,0.00,WeatherDisplay:10.37,2013-02-15 20:58:00,
2013-02-15 16:00:00,25.7,-2.2,29.03,NNW,338,10.4,10.4,29,0.00,CLR,,0.00,WeatherDisplay:10.37,2013-02-15 21:00:00,
2013-02-15 16:03:00,25.3,-2.5,29.03,NNW,338,6.9,6.9,29,0.00,CLR,,0.00,WeatherDisplay:10.37,2013-02-15 21:03:00,
2013-02-15 16:05:00,25.3,-2.5,29.03,NW,315,5.8,5.8,29,0.00,CLR,,0.00,WeatherDisplay:10.37,2013-02-15 21:05:00,
2013-02-15 16:08:00,25.3,-2.5,29.03,NNW,338,10.2,10.2,29,0.00,CLR,,0.00,WeatherDisplay:10.37,2013-02-15 21:08:00,
2013-02-15 16:10:00,25.5,-2.4,29.03,SSW,202,6.9,6.9,29,0.00,CLR,,0.00,WeatherDisplay:10.37,2013-02-15 21:10:00,
2013-02-15 16:11:00,25.5,-2.4,29.03,NNW,338,3.5,3.5,29,0.00,CLR,,0.00,WeatherDisplay:10.37,2013-02-15 21:11:00,
2013-02-15 16:13:00,25.5,-2.4,29.03,NNW,338,4.3,4.3,29,0.00,CLR,,0.00,WeatherDisplay:10.37,2013-02-15 21:13:00,
2013-02-15 16:15:00,25.5,-2.4,29.03,NW,315,10.4,10.4,29,0.00,CLR,,0.00,WeatherDisplay:10.37,2013-02-15 21:15:00,
2013-02-15 16:16:00,25.5,-2.4,29.03,NW,315,6.9,6.9,29,0.00,CLR,,0.00,WeatherDisplay:10.37,2013-02-15 21:16:00,
2013-02-15 16:18:00,25.3,-2.5,29.03,NNW,338,10.4,10.4,29,0.00,CLR,,0.00,WeatherDisplay:10.37,2013-02-15 21:18:00,
2013-02-15 16:20:00,25.3,-2.5,29.03,NNE,22,6.2,6.2,29,0.00,CLR,,0.00,WeatherDisplay:10.37,2013-02-15 21:20:00,
2013-02-15 16:21:00,25.3,-2.5,29.03,NNE,22,6.2,6.2,29,0.00,CLR,,0.00,WeatherDisplay:10.37,2013-02-15 21:21:00,
2013-02-15 16:23:00,25.5,-2.4,29.03,NW,315,10.4,10.4,29,0.00,CLR,,0.00,WeatherDisplay:10.37,2013-02-15 21:23:00,
2013-02-15 16:25:00,25.5,-2.4,29.03,NNW,338,10.4,10.4,29,0.00,CLR,,0.00,WeatherDisplay:10.37,2013-02-15 21:25:00,
2013-02-15 16:26:00,25.5,-2.4,29.03,WNW,292,8.1,8.1,29,0.00,CLR,,0.00,WeatherDisplay:10.37,2013-02-15 21:26:00,
2013-02-15 16:28:00,25.3,-2.5,29.03,NNE,22,6.9,6.9,29,0.00,CLR,,0.00,WeatherDisplay:10.37,2013-02-15 21:28:00,
2013-02-15 16:29:00,25.5,-2.4,29.03,NW,315,8.1,8.1,29,0.00,CLR,,0.00,WeatherDisplay:10.37,2013-02-15 21:29:00,
2013-02-15 16:31:00,25.3,-2.5,29.03,WNW,292,6.9,6.9,29,0.00,CLR,,0.00,WeatherDisplay:10.37,2013-02-15 21:31:00,
2013-02-15 16:33:00,25.3,-2.5,29.03,NNW,338,5.8,5.8,29,0.00,CLR,,0.00,WeatherDisplay:10.37,2013-02-15 21:33:00,
2013-02-15 16:34:00,25.3,-2.5,29.03,NW,315,5.8,5.8,29,0.00,CLR,,0.00,WeatherDisplay:10.37,2013-02-15 21:34:00,
2013-02-15 16:36:00,25.3,-2.5,29.03,NNW,338,8.1,8.1,29,0.00,CLR,,0.00,WeatherDisplay:10.37,2013-02-15 21:36:00,
2013-02-15 16:39:00,25.3,-2.5,29.03,NW,315,6.9,6.9,29,0.00,CLR,,0.00,WeatherDisplay:10.37,2013-02-15 21:39:00,
2013-02-15 16:41:00,25.5,-2.4,29.03,North,0,5.8,5.8,29,0.00,CLR,,0.00,WeatherDisplay:10.37,2013-02-15 21:41:00,
2013-02-15 16:42:00,25.5,-2.4,29.03,NW,315,5.8,5.8,29,0.00,CLR,,0.00,WeatherDisplay:10.37,2013-02-15 21:42:00,
2013-02-15 16:44:00,25.5,-2.4,29.03,NNW,338,5.9,5.9,29,0.00,CLR,,0.00,WeatherDisplay:10.37,2013-02-15 21:44:00,
2013-02-15 16:46:00,25.3,-2.5,29.03,WNW,292,8.1,8.1,29,0.00,CLR,,0.00,WeatherDisplay:10.37,2013-02-15 21:46:00,
2013-02-15 16:47:00,25.3,-2.5,29.03,NNW,338,8.1,8.1,29,0.00,CLR,,0.00,WeatherDisplay:10.37,2013-02-15 21:47:00,
2013-02-15 16:49:00,25.3,-2.5,29.03,WSW,248,6.9,6.9,29,0.00,CLR,,0.00,WeatherDisplay:10.37,2013-02-15 21:49:00,
2013-02-15 16:51:00,25.3,-2.5,29.03,WNW,292,4.3,4.5,29,0.00,CLR,,0.00,WeatherDisplay:10.37,2013-02-15 21:51:00,
2013-02-15 16:52:00,25.3,-2.5,29.03,NNW,338,5.8,5.8,29,0.00,CLR,,0.00,WeatherDisplay:10.37,2013-02-15 21:52:00,
2013-02-15 16:54:00,25.2,-2.7,29.03,NNW,338,4.6,4.6,29,0.00,CLR,,0.00,WeatherDisplay:10.37,2013-02-15 21:54:00,
2013-02-15 16:56:00,25.3,-2.5,29.03,WSW,248,4.6,4.6,29,0.00,CLR,,0.00,WeatherDisplay:10.37,2013-02-15 21:56:00,
2013-02-15 16:57:00,25.3,-2.5,29.03,WSW,248,1.1,1.1,29,0.00,CLR,,0.00,WeatherDisplay:10.37,2013-02-15 21:57:00,
2013-02-15 16:59:00,25.2,-2.7,29.03,WNW,292,4.6,4.6,29,0.00,CLR,,0.00,WeatherDisplay:10.37,2013-02-15 21:59:00,
2013-02-15 17:01:00,25.3,-2.5,29.03,NNW,338,4.9,4.9,29,0.00,CLR,,0.00,WeatherDisplay:10.37,2013-02-15 22:01:00,
2013-02-15 17:02:00,25.3,-2.5,29.03,NNW,338,4.9,4.9,29,0.00,CLR,,0.00,WeatherDisplay:10.37,2013-02-15 22:02:00,
2013-02-15 17:04:00,25.3,-2.5,29.03,NNW,338,4.6,4.6,29,0.00,CLR,,0.00,WeatherDisplay:10.37,2013-02-15 22:04:00,
2013-02-15 17:07:00,25.2,-2.7,29.03,NW,315,4.6,4.6,29,0.00,CLR,,0.00,WeatherDisplay:10.37,2013-02-15 22:07:00,
2013-02-15 17:09:00,25.3,-2.5,29.03,NNW,338,6.9,6.9,29,0.00,CLR,,0.00,WeatherDisplay:10.37,2013-02-15 22:09:00,
2013-02-15 17:10:00,25.3,-2.5,29.03,NNE,22,6.9,6.9,29,0.00,CLR,,0.00,WeatherDisplay:10.37,2013-02-15 22:10:00,
2013-02-15 17:12:00,25.3,-2.5,29.03,NNE,22,9.7,9.7,29,0.00,CLR,,0.00,WeatherDisplay:10.37,2013-02-15 22:12:00,
2013-02-15 17:15:00,25.2,-2.7,29.03,NNW,348,6.0,11.0,29,0.00,CLR,,0.00,WeatherDisplay:10.37,2013-02-15 22:15:00,
2013-02-15 17:17:00,25.2,-2.7,29.03,NNE,22,7.6,7.6,29,0.00,CLR,,0.00,WeatherDisplay:10.37,2013-02-15 22:17:00,
2013-02-15 17:20:00,25.2,-2.7,29.03,NNW,345,6.0,10.0,29,0.00,CLR,,0.00,WeatherDisplay:10.37,2013-02-15 22:20:00,
2013-02-15 17:22:00,25.0,-2.9,29.03,NNW,338,4.6,4.6,29,0.00,CLR,,0.00,WeatherDisplay:10.37,2013-02-15 22:22:00,
2013-02-15 17:23:00,25.0,-2.9,29.03,NNW,338,4.6,4.6,29,0.00,CLR,,0.00,WeatherDisplay:10.37,2013-02-15 22:23:00,
2013-02-15 17:25:00,25.2,-2.7,29.03,NNW,338,5.8,5.8,29,0.00,CLR,,0.00,WeatherDisplay:10.37,2013-02-15 22:25:00,
2013-02-15 17:27:00,25.2,-2.7,29.03,NW,315,12.7,12.7,29,0.00,CLR,,0.00,WeatherDisplay:10.37,2013-02-15 22:27:00,
2013-02-15 17:28:00,25.2,-2.7,29.03,NNW,338,5.8,5.8,29,0.00,CLR,,0.00,WeatherDisplay:10.37,2013-02-15 22:28:00,
2013-02-15 17:30:00,25.0,-2.9,29.03,NNW,338,8.1,8.1,29,0.00,CLR,,0.00,WeatherDisplay:10.37,2013-02-15 22:30:00,
2013-02-15 17:33:00,25.0,-2.9,29.03,NNW,338,3.5,3.5,29,0.00,CLR,,0.00,WeatherDisplay:10.37,2013-02-15 22:33:00,
2013-02-15 17:35:00,25.0,-2.9,29.03,NNE,22,6.9,6.9,29,0.00,CLR,,0.00,WeatherDisplay:10.37,2013-02-15 22:35:00,
2013-02-15 17:38:00,25.2,-2.7,29.03,NNE,22,9.2,9.2,29,0.00,CLR,,0.00,WeatherDisplay:10.37,2013-02-15 22:38:00,
2013-02-15 17:40:00,25.2,-2.7,29.03,NNE,22,12.3,12.3,29,0.00,CLR,,0.00,WeatherDisplay:10.37,2013-02-15 22:40:00,
2013-02-15 17:43:00,25.0,-2.9,29.03,NNW,338,8.1,8.1,29,0.00,CLR,,0.00,WeatherDisplay:10.37,2013-02-15 22:43:00,
2013-02-15 17:45:00,24.8,-3.0,29.06,NNW,338,7.4,7.4,29,0.00,CLR,,0.00,WeatherDisplay:10.37,2013-02-15 22:45:00,
2013-02-15 17:48:00,24.8,-3.0,29.06,WNW,292,5.8,5.8,29,0.00,CLR,,0.00,WeatherDisplay:10.37,2013-02-15 22:48:00,
2013-02-15 17:49:00,24.8,-3.0,29.06,WNW,292,5.8,5.8,29,0.00,CLR,,0.00,WeatherDisplay:10.37,2013-02-15 22:49:00,
2013-02-15 17:50:00,24.8,-3.0,29.06,SSW,202,4.0,4.0,29,0.00,CLR,,0.00,WeatherDisplay:10.37,2013-02-15 22:50:00,
2013-02-15 17:53:00,24.8,-3.0,29.06,North,0,9.8,9.8,29,0.00,CLR,,0.00,WeatherDisplay:10.37,2013-02-15 22:53:00,
2013-02-15 17:54:00,24.8,-3.0,29.06,NNW,338,9.2,9.2,29,0.00,CLR,,0.00,WeatherDisplay:10.37,2013-02-15 22:54:00,
2013-02-15 17:55:00,24.8,-3.0,29.06,NNE,22,9.2,9.2,29,0.00,CLR,,0.00,WeatherDisplay:10.37,2013-02-15 22:55:00,
2013-02-15 17:59:00,24.6,-3.2,29.06,North,0,5.8,5.8,29,0.00,CLR,,0.00,WeatherDisplay:10.37,2013-02-15 22:59:00,
2013-02-15 18:00:00,24.6,-3.2,29.06,North,0,4.6,4.6,29,0.00,CLR,,0.00,WeatherDisplay:10.37,2013-02-15 23:00:00,
2013-02-15 18:05:00,24.6,-3.2,29.06,WNW,292,4.6,4.6,29,0.00,CLR,,0.00,WeatherDisplay:10.37,2013-02-15 23:05:00,
2013-02-15 18:06:00,24.6,-3.2,29.06,NNW,338,6.0,6.0,29,0.00,CLR,,0.00,WeatherDisplay:10.37,2013-02-15 23:06:00,
2013-02-15 18:10:00,24.6,-3.2,29.06,WNW,292,3.8,3.8,29,0.00,CLR,,0.00,WeatherDisplay:10.37,2013-02-15 23:10:00,
2013-02-15 18:11:00,24.4,-3.3,29.06,NNW,338,3.5,3.5,29,0.00,CLR,,0.00,WeatherDisplay:10.37,2013-02-15 23:11:00,
2013-02-15 18:15:00,24.4,-3.3,29.06,West,270,5.8,5.8,29,0.00,CLR,,0.00,WeatherDisplay:10.37,2013-02-15 23:15:00,
2013-02-15 18:16:00,24.4,-3.3,29.06,NW,315,2.4,0.0,29,0.00,CLR,,0.00,WeatherDisplay:10.37,2013-02-15 23:16:00,
2013-02-15 18:20:00,24.4,-3.3,29.06,NNW,338,4.6,4.6,29,0.00,CLR,,0.00,WeatherDisplay:10.37,2013-02-15 23:20:00,